DLH797 VHHH-EDDF

Flight info

Callsign DLH797
Flight time 12h 58m
Altitude 27600
Route BEKOL A461 SHL W22 TEPID W24 OSNOV G586 QP B330 ELKAL W179 LEBIV/K0915S0920 W179 IGNAK/K0896S0890 W179 WFX/K0913S0920 W179 OMBON W195 VIDEK/K0895S0890 W195 ORUNA/K0922S0950 W195 LAXAL/K0911S0920 W195 IDOPA W197 ANDIM B215 NIXUK/K0920S0980 B215 IBANO G470 AKLAS W192 FKG A368 SARIN/K0900F320 N161 ABURA/K0895F340 N161 GASBI/N0486F340 N161 LEYLA T916 MATAL DCT TABAS DCT REBLO UM11 CRM UL746 GOKPA/N0485F360 UL746 ODERO DCT OPT DCT IRLOX DCT BALUX DCT TEKNO DCT ABETI DCT SUBEN DCT AKINI T161 DEBHI DEBHI1B
Aircraft A346/H-SDE2E3FGHIJ3J4J5M1RWXY/LB1D1

Departure

Time 2026-05-04 21:50
Airport Hong Kong International Airport (VHHH)

Arrival

Time 2026-05-05 10:48
Airport Frankfurt Main Airport (EDDF)
Time Latitude Longitude Altitude Speed Heading
2026-05-04 21:30 22.31364 113.93195 44 ft 0 kts 340°
2026-05-04 21:35 22.31360 113.93196 43 ft 3 kts 340°
2026-05-04 21:36 22.31335 113.93206 41 ft 4 kts 341°
2026-05-04 21:36 22.31313 113.93214 41 ft 4 kts 332°
2026-05-04 21:36 22.31297 113.93228 41 ft 4 kts 300°
2026-05-04 21:36 22.31293 113.93247 40 ft 4 kts 262°
2026-05-04 21:37 22.31297 113.93265 38 ft 4 kts 251°
2026-05-04 21:37 22.31307 113.93293 40 ft 1 kts 251°
2026-05-04 21:37 22.31308 113.93296 40 ft 0 kts 251°
2026-05-04 21:40 22.31307 113.93294 40 ft 1 kts 251°
2026-05-04 21:40 22.31302 113.93279 43 ft 3 kts 251°
2026-05-04 21:40 22.31291 113.93244 43 ft 6 kts 251°
2026-05-04 21:40 22.31274 113.93191 43 ft 8 kts 251°
2026-05-04 21:41 22.31254 113.93128 43 ft 10 kts 251°
2026-05-04 21:41 22.31228 113.93047 43 ft 12 kts 250°
2026-05-04 21:41 22.31198 113.92957 43 ft 13 kts 250°
2026-05-04 21:41 22.31149 113.92878 43 ft 13 kts 203°
2026-05-04 21:42 22.31052 113.92825 43 ft 18 kts 206°
2026-05-04 21:42 22.30939 113.92767 43 ft 18 kts 205°
2026-05-04 21:42 22.30840 113.92698 43 ft 17 kts 238°
2026-05-04 21:42 22.30796 113.92577 43 ft 17 kts 250°
2026-05-04 21:43 22.30758 113.92462 43 ft 18 kts 251°
2026-05-04 21:43 22.30718 113.92326 43 ft 20 kts 252°
2026-05-04 21:43 22.30665 113.92171 43 ft 24 kts 250°
2026-05-04 21:43 22.30609 113.91998 43 ft 24 kts 251°
2026-05-04 21:44 22.30556 113.91821 43 ft 25 kts 252°
2026-05-04 21:44 22.30501 113.91645 43 ft 25 kts 251°
2026-05-04 21:44 22.30441 113.91466 43 ft 25 kts 249°
2026-05-04 21:44 22.30380 113.91285 43 ft 25 kts 251°
2026-05-04 21:45 22.30323 113.91105 43 ft 26 kts 251°
2026-05-04 21:45 22.30264 113.90922 43 ft 26 kts 251°
2026-05-04 21:45 22.30204 113.90737 43 ft 26 kts 251°
2026-05-04 21:45 22.30143 113.90551 43 ft 26 kts 250°
2026-05-04 21:46 22.30084 113.90367 43 ft 26 kts 251°
2026-05-04 21:46 22.30024 113.90179 44 ft 26 kts 251°
2026-05-04 21:46 22.29965 113.89996 44 ft 26 kts 251°
2026-05-04 21:46 22.29905 113.89809 44 ft 26 kts 251°
2026-05-04 21:47 22.29800 113.89741 44 ft 19 kts 161°
2026-05-04 21:47 22.29694 113.89784 44 ft 13 kts 159°
2026-05-04 21:47 22.29633 113.89810 44 ft 4 kts 143°
2026-05-04 21:47 22.29634 113.89834 44 ft 2 kts 75°
2026-05-04 21:48 22.29634 113.89835 44 ft 0 kts 74°
2026-05-04 21:48 22.29634 113.89836 44 ft 0 kts 74°
2026-05-04 21:49 22.29635 113.89838 44 ft 3 kts 74°
2026-05-04 21:49 22.29702 113.90050 44 ft 60 kts 70°
2026-05-04 21:49 22.29903 113.90670 44 ft 115 kts 70°
2026-05-04 21:49 22.30226 113.91663 44 ft 162 kts 70°
2026-05-04 21:50 22.30637 113.92929 166 ft 190 kts 71°
2026-05-04 21:50 22.31083 113.94269 833 ft 186 kts 70°
2026-05-04 21:50 22.31513 113.95581 1487 ft 188 kts 71°
2026-05-04 21:50 22.31948 113.96934 2040 ft 194 kts 73°
2026-05-04 21:51 22.32387 113.98341 2302 ft 202 kts 74°
2026-05-04 21:51 22.32847 113.99813 2535 ft 214 kts 74°
2026-05-04 21:51 22.33337 114.01383 2802 ft 226 kts 72°
2026-05-04 21:51 22.33795 114.03066 3044 ft 240 kts 87°
2026-05-04 21:52 22.33654 114.04898 3291 ft 249 kts 110°
2026-05-04 21:52 22.33036 114.06697 3550 ft 262 kts 113°
2026-05-04 21:52 22.32333 114.08559 3826 ft 276 kts 112°
2026-05-04 21:52 22.31586 114.10563 4224 ft 286 kts 112°
2026-05-04 21:53 22.30847 114.12583 4696 ft 293 kts 112°
2026-05-04 21:53 22.30091 114.14660 5167 ft 299 kts 112°
2026-05-04 21:53 22.29319 114.16788 5685 ft 303 kts 112°
2026-05-04 21:53 22.28555 114.18899 6237 ft 305 kts 112°
2026-05-04 21:54 22.27771 114.21070 6713 ft 310 kts 112°
2026-05-04 21:54 22.27024 114.23129 7211 ft 312 kts 112°
2026-05-04 21:54 22.26277 114.25189 7744 ft 313 kts 112°
2026-05-04 21:54 22.25741 114.27454 8193 ft 318 kts 89°
2026-05-04 21:55 22.26234 114.29784 8626 ft 320 kts 58°
2026-05-04 21:55 22.27694 114.31534 9078 ft 318 kts 30°
2026-05-04 21:55 22.29670 114.32599 9606 ft 316 kts 20°
2026-05-04 21:55 22.31656 114.33501 10026 ft 320 kts 21°
2026-05-04 21:56 22.33445 114.34380 10303 ft 327 kts 24°
2026-05-04 21:56 22.35399 114.35421 10502 ft 337 kts 25°
2026-05-04 21:56 22.37585 114.36339 10660 ft 345 kts
2026-05-04 21:56 22.39999 114.36319 10862 ft 350 kts 344°
2026-05-04 21:57 22.42232 114.35296 11030 ft 354 kts 322°
2026-05-04 21:57 22.43961 114.33412 11217 ft 359 kts 300°
2026-05-04 21:57 22.45224 114.31034 11442 ft 367 kts 296°
2026-05-04 21:57 22.46460 114.28584 11791 ft 371 kts 295°
2026-05-04 21:58 22.47695 114.26147 12297 ft 372 kts 295°
2026-05-04 21:58 22.48948 114.23701 12738 ft 375 kts 296°
2026-05-04 21:58 22.50244 114.21197 13125 ft 379 kts 296°
2026-05-04 21:58 22.51104 114.19543 13421 ft 381 kts 296°
2026-05-04 21:59 22.52858 114.16216 13986 ft 385 kts 299°
2026-05-04 21:59 22.54572 114.13925 14320 ft 395 kts 313°
2026-05-04 21:59 22.56751 114.12114 14699 ft 402 kts 326°
2026-05-04 21:59 22.59282 114.10718 15107 ft 406 kts 330°
2026-05-04 22:00 22.61823 114.09433 15482 ft 409 kts 331°
2026-05-04 22:00 22.64426 114.08125 15828 ft 412 kts 330°
2026-05-04 22:00 22.67040 114.06802 16193 ft 414 kts 330°
2026-05-04 22:00 22.69635 114.05484 16556 ft 416 kts 329°
2026-05-04 22:01 22.72278 114.04127 16924 ft 418 kts 329°
2026-05-04 22:01 22.74884 114.02784 17251 ft 420 kts 329°
2026-05-04 22:01 22.77537 114.01416 17606 ft 422 kts 329°
2026-05-04 22:01 22.80182 114.00053 18002 ft 424 kts 329°
2026-05-04 22:02 22.82858 113.98676 18384 ft 424 kts 329°
2026-05-04 22:02 22.85500 113.97313 18737 ft 424 kts 329°
2026-05-04 22:02 22.88179 113.95929 19038 ft 426 kts 329°
2026-05-04 22:02 22.89996 113.94990 19245 ft 427 kts 329°
2026-05-04 22:03 22.93562 113.93139 19665 ft 429 kts 328°
2026-05-04 22:03 22.96237 113.91746 19984 ft 430 kts 328°
2026-05-04 22:03 22.98939 113.90338 20306 ft 431 kts 328°
2026-05-04 22:03 23.01658 113.88921 20620 ft 432 kts 328°
2026-05-04 22:04 23.04384 113.87500 20945 ft 434 kts 328°
2026-05-04 22:04 23.07042 113.85998 21221 ft 432 kts 324°
2026-05-04 22:04 23.09534 113.84232 21505 ft 429 kts 318°
2026-05-04 22:04 23.11850 113.82203 21808 ft 426 kts 313°
2026-05-04 22:05 23.14006 113.80012 22117 ft 426 kts 311°
2026-05-04 22:05 23.16154 113.77764 22413 ft 427 kts 310°
2026-05-04 22:05 23.18302 113.75504 22694 ft 428 kts 310°
2026-05-04 22:05 23.20444 113.73249 22982 ft 429 kts 311°
2026-05-04 22:06 23.22585 113.71002 23277 ft 429 kts 311°
2026-05-04 22:06 23.24715 113.68770 23553 ft 430 kts 311°
2026-05-04 22:06 23.26882 113.66499 23775 ft 432 kts 311°
2026-05-04 22:06 23.29048 113.64230 23999 ft 432 kts 311°
2026-05-04 22:07 23.31210 113.61964 24243 ft 433 kts 311°
2026-05-04 22:07 23.33395 113.59673 24483 ft 433 kts 311°
2026-05-04 22:07 23.35558 113.57404 24716 ft 434 kts 311°
2026-05-04 22:07 23.37748 113.55104 24935 ft 435 kts 311°
2026-05-04 22:08 23.39907 113.52837 25156 ft 436 kts 311°
2026-05-04 22:08 23.42091 113.50541 25389 ft 436 kts 310°
2026-05-04 22:08 23.44287 113.48229 25613 ft 437 kts 310°
2026-05-04 22:08 23.46458 113.45943 25818 ft 438 kts 310°
2026-05-04 22:09 23.48660 113.43620 26030 ft 438 kts 310°
2026-05-04 22:09 23.50860 113.41297 26277 ft 439 kts 311°
2026-05-04 22:09 23.53042 113.38994 26497 ft 439 kts 311°
2026-05-04 22:09 23.55254 113.36643 26695 ft 439 kts 310°
2026-05-04 22:10 23.57420 113.34315 26891 ft 440 kts 310°
2026-05-04 22:10 23.59607 113.31959 27090 ft 441 kts 310°
2026-05-04 22:10 23.61775 113.29625 27279 ft 442 kts 310°
2026-05-04 22:10 23.63936 113.27233 27459 ft 440 kts 307°
2026-05-04 22:11 23.65863 113.24671 27647 ft 437 kts 302°
2026-05-04 22:11 23.67546 113.21903 27822 ft 435 kts 296°
2026-05-04 22:11 23.68956 113.18990 28059 ft 432 kts 292°
2026-05-04 22:11 23.70209 113.16036 28342 ft 430 kts 291°
2026-05-04 22:12 23.71439 113.13079 28590 ft 429 kts 291°
2026-05-04 22:12 23.72676 113.10084 28786 ft 429 kts 291°
2026-05-04 22:12 23.73894 113.07131 28947 ft 430 kts 291°
2026-05-04 22:12 23.75166 113.04129 29114 ft 432 kts 295°
2026-05-04 22:13 23.76827 113.01418 29216 ft 439 kts 306°
2026-05-04 22:13 23.79019 112.99038 29396 ft 446 kts 315°
2026-05-04 22:13 23.81633 112.97126 29547 ft 456 kts 325°
2026-05-04 22:13 23.84563 112.95786 29700 ft 467 kts 334°
2026-05-04 22:14 23.87658 112.94724 29942 ft 466 kts 335°
2026-05-04 22:14 23.90770 112.93691 30185 ft 465 kts 335°
2026-05-04 22:14 23.93850 112.92676 30204 ft 466 kts 335°
2026-05-04 22:15 24.00076 112.90611 30215 ft 466 kts 335°
2026-05-04 22:15 24.06246 112.88556 30216 ft 466 kts 335°
2026-05-04 22:16 24.12432 112.86492 30229 ft 466 kts 335°
2026-05-04 22:16 24.18631 112.84428 30241 ft 465 kts 335°
2026-05-04 22:17 24.24823 112.82373 30226 ft 464 kts 335°
2026-05-04 22:17 24.30992 112.80318 30226 ft 463 kts 335°
2026-05-04 22:18 24.37160 112.78265 30223 ft 464 kts 335°
2026-05-04 22:18 24.42826 112.75342 30220 ft 444 kts 317°
2026-05-04 22:19 24.47086 112.70589 30257 ft 431 kts 300°
2026-05-04 22:19 24.49612 112.64709 30240 ft 425 kts 284°
2026-05-04 22:20 24.50530 112.58338 30249 ft 425 kts 276°
2026-05-04 22:20 24.51191 112.51880 30229 ft 424 kts 276°
2026-05-04 22:21 24.51830 112.45430 30240 ft 424 kts 276°
2026-05-04 22:21 24.52455 112.39002 30233 ft 422 kts 276°
2026-05-04 22:22 24.53075 112.32580 30233 ft 423 kts 276°
2026-05-04 22:22 24.53691 112.26137 30221 ft 424 kts 276°
2026-05-04 22:23 24.54306 112.19689 30232 ft 425 kts 276°
2026-05-04 22:23 24.54920 112.13228 30222 ft 425 kts 276°
2026-05-04 22:24 24.55530 112.06766 30232 ft 423 kts 276°
2026-05-04 22:24 24.56130 112.00375 30234 ft 423 kts 276°
2026-05-04 22:25 24.56732 111.93945 30235 ft 423 kts 276°
2026-05-04 22:25 24.57329 111.87505 30229 ft 423 kts 276°
2026-05-04 22:26 24.57924 111.81084 30225 ft 422 kts 276°
2026-05-04 22:26 24.58519 111.74658 30229 ft 422 kts 276°
2026-05-04 22:27 24.59106 111.68239 30220 ft 422 kts 276°
2026-05-04 22:27 24.59692 111.61804 30227 ft 423 kts 276°
2026-05-04 22:28 24.60277 111.55361 30222 ft 423 kts 276°
2026-05-04 22:28 24.60858 111.48928 30221 ft 423 kts 276°
2026-05-04 22:29 24.61434 111.42511 30228 ft 423 kts 276°
2026-05-04 22:29 24.62010 111.36062 30224 ft 423 kts 276°
2026-05-04 22:30 24.62584 111.29614 30221 ft 423 kts 276°
2026-05-04 22:30 24.63146 111.23197 30224 ft 422 kts 276°
2026-05-04 22:31 24.63701 111.16778 30224 ft 422 kts 276°
2026-05-04 22:31 24.64259 111.10307 30219 ft 424 kts 275°
2026-05-04 22:32 24.64809 111.03844 30217 ft 425 kts 275°
2026-05-04 22:32 24.65356 110.97397 30220 ft 425 kts 275°
2026-05-04 22:33 24.65903 110.90920 30225 ft 425 kts 275°
2026-05-04 22:33 24.66518 110.84412 30213 ft 426 kts 279°
2026-05-04 22:34 24.68009 110.78122 30213 ft 429 kts 288°
2026-05-04 22:34 24.70542 110.72176 30215 ft 433 kts 297°
2026-05-04 22:35 24.73844 110.66597 30215 ft 434 kts 300°
2026-05-04 22:35 24.77209 110.61082 30216 ft 434 kts 300°
2026-05-04 22:36 24.80579 110.55568 30236 ft 432 kts 300°
2026-05-04 22:36 24.83930 110.50089 30217 ft 431 kts 300°
2026-05-04 22:37 24.86710 110.45535 30216 ft 430 kts 300°
2026-05-04 22:37 24.90057 110.40050 30213 ft 430 kts 300°
2026-05-04 22:38 24.93381 110.34600 30214 ft 430 kts 300°
2026-05-04 22:38 24.96717 110.29123 30215 ft 430 kts 300°
2026-05-04 22:39 25.00043 110.23655 30219 ft 430 kts 300°
2026-05-04 22:39 25.03362 110.18192 30228 ft 429 kts 300°
2026-05-04 22:40 25.06684 110.12717 30222 ft 430 kts 300°
2026-05-04 22:40 25.10015 110.07221 30233 ft 430 kts 300°
2026-05-04 22:41 25.13337 110.01735 30237 ft 430 kts 300°
2026-05-04 22:41 25.16638 109.96277 30238 ft 430 kts 300°
2026-05-04 22:42 25.19949 109.90797 30233 ft 429 kts 300°
2026-05-04 22:42 25.23246 109.85331 30223 ft 428 kts 300°
2026-05-04 22:43 25.26563 109.79828 30222 ft 429 kts 300°
2026-05-04 22:43 25.29857 109.74352 30224 ft 429 kts 300°
2026-05-04 22:44 25.33172 109.68838 30218 ft 429 kts 300°
2026-05-04 22:44 25.36457 109.63367 30211 ft 429 kts 300°
2026-05-04 22:45 25.39748 109.57880 30217 ft 429 kts 300°
2026-05-04 22:45 25.44700 109.49614 30215 ft 429 kts 300°
2026-05-04 22:46 25.47998 109.44100 30218 ft 429 kts 300°
2026-05-04 22:46 25.51296 109.38579 30218 ft 429 kts 300°
2026-05-04 22:47 25.54586 109.33065 30213 ft 429 kts 300°
2026-05-04 22:47 25.57880 109.27530 30223 ft 431 kts 300°
2026-05-04 22:48 25.61192 109.21968 30224 ft 432 kts 301°
2026-05-04 22:48 25.64498 109.16413 30222 ft 431 kts 300°
2026-05-04 22:49 25.67794 109.10865 30227 ft 431 kts 300°
2026-05-04 22:49 25.71082 109.05319 30221 ft 431 kts 300°
2026-05-04 22:50 25.74370 108.99772 30224 ft 431 kts 300°
2026-05-04 22:50 25.77667 108.94199 30232 ft 432 kts 300°
2026-05-04 22:51 25.80951 108.88643 30235 ft 431 kts 300°
2026-05-04 22:51 25.84239 108.83074 30243 ft 431 kts 300°
2026-05-04 22:52 25.87529 108.77492 30230 ft 431 kts 301°
2026-05-04 22:52 25.90815 108.71911 30226 ft 432 kts 300°
2026-05-04 22:53 25.94098 108.66328 30265 ft 432 kts 301°
2026-05-04 22:53 25.97394 108.60707 30249 ft 434 kts 301°
2026-05-04 22:54 26.00690 108.55096 30249 ft 434 kts 301°
2026-05-04 22:54 26.03970 108.49494 30247 ft 433 kts 301°
2026-05-04 22:55 26.07267 108.43860 30247 ft 434 kts 301°
2026-05-04 22:55 26.10321 108.38067 30248 ft 432 kts 298°
2026-05-04 22:56 26.12996 108.32076 30247 ft 433 kts 296°
2026-05-04 22:56 26.15620 108.26047 30246 ft 433 kts 296°
2026-05-04 22:57 26.18237 108.20004 30251 ft 433 kts 296°
2026-05-04 22:57 26.20850 108.13953 30261 ft 433 kts 296°
2026-05-04 22:58 26.23461 108.07898 30253 ft 433 kts 296°
2026-05-04 22:58 26.26066 108.01849 30251 ft 433 kts 296°
2026-05-04 22:59 26.28659 107.95813 30254 ft 433 kts 296°
2026-05-04 22:59 26.31252 107.89772 30258 ft 433 kts 296°
2026-05-04 23:00 26.33854 107.83700 30292 ft 432 kts 296°
2026-05-04 23:00 26.36433 107.77671 30272 ft 430 kts 296°
2026-05-04 23:01 26.38996 107.71671 30257 ft 432 kts 296°
2026-05-04 23:01 26.41600 107.65571 30263 ft 434 kts 296°
2026-05-04 23:02 26.44194 107.59486 30271 ft 433 kts 296°
2026-05-04 23:02 26.46769 107.53433 30272 ft 434 kts 296°
2026-05-04 23:03 26.49361 107.47331 30273 ft 434 kts 296°
2026-05-04 23:03 26.51953 107.41221 30273 ft 434 kts 296°
2026-05-04 23:04 26.54541 107.35108 30268 ft 437 kts 296°
2026-05-04 23:04 26.57124 107.28998 30280 ft 437 kts 296°
2026-05-04 23:05 26.59716 107.22854 30279 ft 437 kts 296°
2026-05-04 23:05 26.62318 107.16682 30285 ft 438 kts 296°
2026-05-04 23:06 26.64920 107.10535 30286 ft 437 kts 296°
2026-05-04 23:06 26.67531 107.04404 30275 ft 437 kts 296°
2026-05-04 23:07 26.70142 106.98254 30279 ft 439 kts 296°
2026-05-04 23:07 26.72760 106.92064 30282 ft 440 kts 296°
2026-05-04 23:08 26.75384 106.85863 30293 ft 439 kts 297°
2026-05-04 23:08 26.78479 106.80000 30281 ft 438 kts 305°
2026-05-04 23:09 26.82353 106.74734 30267 ft 439 kts 313°
2026-05-04 23:09 26.86847 106.70077 30269 ft 440 kts 317°
2026-05-04 23:10 26.91450 106.65553 30264 ft 443 kts 317°
2026-05-04 23:10 26.96083 106.61009 30257 ft 443 kts 317°
2026-05-04 23:11 27.00741 106.56436 30255 ft 443 kts 317°
2026-05-04 23:11 27.05351 106.51906 30255 ft 443 kts 317°
2026-05-04 23:12 27.09986 106.47343 30268 ft 443 kts 317°
2026-05-04 23:12 27.14612 106.42783 30255 ft 440 kts 317°
2026-05-04 23:13 27.19218 106.38241 30249 ft 440 kts 317°
2026-05-04 23:13 27.23828 106.33745 30236 ft 441 kts 318°
2026-05-04 23:14 27.28489 106.29223 30244 ft 444 kts 318°
2026-05-04 23:14 27.33154 106.24684 30247 ft 444 kts 317°
2026-05-04 23:15 27.37834 106.20121 30233 ft 444 kts 317°
2026-05-04 23:15 27.42460 106.15604 30236 ft 444 kts 317°
2026-05-04 23:16 27.47195 106.10973 30455 ft 449 kts 317°
2026-05-04 23:16 27.49560 106.08659 30732 ft 447 kts 317°
2026-05-04 23:16 27.51883 106.06384 31022 ft 445 kts 317°
2026-05-04 23:17 27.54208 106.04105 31314 ft 444 kts 317°
2026-05-04 23:17 27.56550 106.01808 31601 ft 443 kts 317°
2026-05-04 23:17 27.58872 105.99527 31857 ft 441 kts 317°
2026-05-04 23:17 27.61164 105.97275 32011 ft 442 kts 317°
2026-05-04 23:18 27.65775 105.92639 32008 ft 441 kts 314°
2026-05-04 23:18 27.69843 105.87464 32004 ft 440 kts 306°
2026-05-04 23:19 27.73222 105.81687 32015 ft 440 kts 299°
2026-05-04 23:19 27.75833 105.75455 32005 ft 440 kts 292°
2026-05-04 23:20 27.77781 105.68928 32006 ft 440 kts 289°
2026-05-04 23:20 27.79710 105.62324 31976 ft 440 kts 291°
2026-05-04 23:21 27.82036 105.55921 31986 ft 441 kts 294°
2026-05-04 23:21 27.84487 105.49556 31980 ft 441 kts 294°
2026-05-04 23:22 27.86930 105.43219 31984 ft 441 kts 294°
2026-05-04 23:22 27.89503 105.36900 31981 ft 441 kts 297°
2026-05-04 23:23 27.92258 105.30700 31955 ft 441 kts 297°
2026-05-04 23:23 27.95258 105.24672 31955 ft 443 kts 303°
2026-05-04 23:24 27.99022 105.19109 31947 ft 445 kts 310°
2026-05-04 23:24 28.03447 105.14207 31955 ft 447 kts 318°
2026-05-04 23:25 28.08480 105.10045 31929 ft 449 kts 324°
2026-05-04 23:25 28.13773 105.06305 31943 ft 449 kts 325°
2026-05-04 23:26 28.19085 105.02591 31926 ft 449 kts 325°
2026-05-04 23:26 28.24396 104.98873 31923 ft 449 kts 325°
2026-05-04 23:27 28.29736 104.95131 31924 ft 449 kts 325°
2026-05-04 23:27 28.35059 104.91393 31909 ft 450 kts 325°
2026-05-04 23:28 28.40377 104.87663 31917 ft 451 kts 326°
2026-05-04 23:28 28.45725 104.83937 31922 ft 450 kts 326°
2026-05-04 23:29 28.51060 104.80211 31918 ft 450 kts 326°
2026-05-04 23:29 28.56396 104.76476 31912 ft 450 kts 325°
2026-05-04 23:30 28.61716 104.72745 31913 ft 450 kts 325°
2026-05-04 23:30 28.67047 104.69001 31914 ft 450 kts 325°
2026-05-04 23:31 28.72385 104.65247 31908 ft 450 kts 325°
2026-05-04 23:31 28.77694 104.61507 31921 ft 449 kts 325°
2026-05-04 23:32 28.83003 104.57761 31913 ft 449 kts 325°
2026-05-04 23:32 28.88342 104.53986 31911 ft 449 kts 325°
2026-05-04 23:33 28.93628 104.50227 31912 ft 449 kts 325°
2026-05-04 23:33 28.98924 104.46451 31913 ft 449 kts 325°
2026-05-04 23:34 29.04229 104.42663 31928 ft 449 kts 325°
2026-05-04 23:34 29.09520 104.38879 31916 ft 448 kts 325°
2026-05-04 23:35 29.14798 104.35100 31916 ft 448 kts 325°
2026-05-04 23:35 29.20212 104.31530 31917 ft 451 kts 332°
2026-05-04 23:36 29.25108 104.29408 31913 ft 456 kts 340°
2026-05-04 23:36 29.31406 104.28033 31917 ft 463 kts 350°
2026-05-04 23:37 29.37906 104.28067 31924 ft 471 kts
2026-05-04 23:37 29.44400 104.29090 31921 ft 472 kts
2026-05-04 23:38 29.50896 104.30207 31918 ft 472 kts
2026-05-04 23:38 29.57389 104.31321 31920 ft 472 kts
2026-05-04 23:39 29.63898 104.32434 31930 ft 472 kts
2026-05-04 23:39 29.70338 104.33535 31921 ft 471 kts
2026-05-04 23:40 29.76826 104.34643 31925 ft 471 kts
2026-05-04 23:40 29.83303 104.35751 31925 ft 471 kts
2026-05-04 23:41 29.89775 104.36859 31949 ft 471 kts
2026-05-04 23:41 29.96257 104.37971 31929 ft 469 kts
2026-05-04 23:42 30.02674 104.39070 31921 ft 468 kts
2026-05-04 23:42 30.09123 104.40175 31927 ft 468 kts
2026-05-04 23:43 30.15596 104.41292 31937 ft 469 kts
2026-05-04 23:43 30.22022 104.42415 31935 ft 466 kts
2026-05-04 23:44 30.28436 104.43537 31929 ft 466 kts
2026-05-04 23:44 30.34836 104.44653 31924 ft 466 kts
2026-05-04 23:45 30.41245 104.45769 31923 ft 466 kts
2026-05-04 23:45 30.47649 104.46888 31932 ft 466 kts
2026-05-04 23:46 30.54055 104.47696 31928 ft 461 kts 357°
2026-05-04 23:46 30.60437 104.47568 31927 ft 456 kts 350°
2026-05-04 23:47 30.66712 104.46503 31929 ft 451 kts 343°
2026-05-04 23:47 30.72735 104.44573 31933 ft 448 kts 338°
2026-05-04 23:48 30.78642 104.42313 31929 ft 448 kts 339°
2026-05-04 23:48 30.84678 104.40477 31927 ft 451 kts 344°
2026-05-04 23:49 30.90885 104.39286 31922 ft 455 kts 348°
2026-05-04 23:49 30.97226 104.38763 31922 ft 458 kts 353°
2026-05-04 23:50 31.03606 104.38571 31931 ft 459 kts 354°
2026-05-04 23:50 31.09977 104.38406 31926 ft 459 kts 354°
2026-05-04 23:51 31.16364 104.38236 31928 ft 459 kts 354°
2026-05-04 23:51 31.22758 104.38066 31928 ft 459 kts 354°
2026-05-04 23:52 31.29141 104.37813 31931 ft 458 kts 352°
2026-05-04 23:52 31.35478 104.37429 31928 ft 458 kts 352°
2026-05-04 23:53 31.41836 104.37045 31927 ft 458 kts 352°
2026-05-04 23:53 31.48181 104.36669 31936 ft 458 kts 352°
2026-05-04 23:54 31.54573 104.36292 31955 ft 457 kts 352°
2026-05-04 23:54 31.60891 104.35920 31958 ft 456 kts 352°
2026-05-04 23:55 31.67230 104.35545 31950 ft 456 kts 352°
2026-05-04 23:56 31.76710 104.34985 31952 ft 456 kts 352°
2026-05-04 23:56 31.83037 104.34658 31969 ft 456 kts 353°
2026-05-04 23:57 31.89389 104.34343 31970 ft 456 kts 353°
2026-05-04 23:57 31.95723 104.34023 31960 ft 456 kts 353°
2026-05-04 23:58 32.02060 104.33698 31967 ft 456 kts 353°
2026-05-04 23:58 32.08381 104.33370 31998 ft 456 kts 353°
2026-05-04 23:59 32.14714 104.33043 31974 ft 455 kts 353°
2026-05-04 23:59 32.21076 104.32713 31980 ft 455 kts 353°
2026-05-05 00:00 32.27371 104.32386 31979 ft 456 kts 353°
2026-05-05 00:00 32.33728 104.32054 31989 ft 455 kts 353°
2026-05-05 00:01 32.40056 104.31723 31978 ft 455 kts 353°
2026-05-05 00:01 32.46380 104.31414 31974 ft 455 kts 353°
2026-05-05 00:02 32.52716 104.31110 31979 ft 455 kts 353°
2026-05-05 00:02 32.59034 104.30807 31960 ft 455 kts 353°
2026-05-05 00:03 32.65366 104.30506 31965 ft 455 kts 353°
2026-05-05 00:03 32.71694 104.30204 31954 ft 455 kts 353°
2026-05-05 00:04 32.78006 104.29896 31950 ft 455 kts 353°
2026-05-05 00:04 32.84299 104.29589 31951 ft 455 kts 353°
2026-05-05 00:05 32.90621 104.29287 31952 ft 455 kts 353°
2026-05-05 00:05 32.96934 104.28987 31941 ft 454 kts 353°
2026-05-05 00:06 33.03290 104.28680 31950 ft 455 kts 353°
2026-05-05 00:06 33.09604 104.28371 31945 ft 455 kts 353°
2026-05-05 00:07 33.15905 104.28061 31940 ft 454 kts 353°
2026-05-05 00:07 33.22221 104.27750 31939 ft 454 kts 353°
2026-05-05 00:08 33.28536 104.27349 31943 ft 453 kts 351°
2026-05-05 00:08 33.34763 104.26339 31939 ft 450 kts 346°
2026-05-05 00:09 33.40833 104.24647 31950 ft 448 kts 341°
2026-05-05 00:09 33.46762 104.22309 31938 ft 447 kts 338°
2026-05-05 00:10 33.52619 104.19770 31923 ft 448 kts 337°
2026-05-05 00:10 33.58459 104.17218 31928 ft 448 kts 337°
2026-05-05 00:11 33.64323 104.14653 31921 ft 448 kts 337°
2026-05-05 00:11 33.70182 104.12085 31925 ft 448 kts 337°
2026-05-05 00:12 33.76033 104.09520 31912 ft 449 kts 337°
2026-05-05 00:12 33.81902 104.06943 31920 ft 449 kts 337°
2026-05-05 00:13 33.87743 104.04375 31915 ft 448 kts 337°
2026-05-05 00:13 33.93638 104.01779 31923 ft 448 kts 337°
2026-05-05 00:14 33.99473 103.99206 31916 ft 448 kts 337°
2026-05-05 00:14 34.05342 103.96615 31910 ft 448 kts 337°
2026-05-05 00:15 34.11180 103.94032 31906 ft 448 kts 337°
2026-05-05 00:15 34.17026 103.91443 31921 ft 448 kts 337°
2026-05-05 00:16 34.22872 103.88848 31928 ft 448 kts 337°
2026-05-05 00:16 34.28722 103.86250 31926 ft 448 kts 337°
2026-05-05 00:17 34.34590 103.83642 31916 ft 449 kts 337°
2026-05-05 00:17 34.40448 103.81032 31923 ft 450 kts 337°
2026-05-05 00:18 34.46309 103.78415 31935 ft 450 kts 337°
2026-05-05 00:18 34.52167 103.75796 31929 ft 450 kts 337°
2026-05-05 00:19 34.58073 103.73153 31921 ft 450 kts 337°
2026-05-05 00:19 34.63908 103.70537 31921 ft 450 kts 337°
2026-05-05 00:20 34.69808 103.67889 31922 ft 450 kts 337°
2026-05-05 00:20 34.75675 103.65250 31929 ft 450 kts 337°
2026-05-05 00:21 34.81545 103.62607 31922 ft 450 kts 337°
2026-05-05 00:21 34.87408 103.59963 31921 ft 450 kts 337°
2026-05-05 00:22 34.93273 103.57314 31902 ft 450 kts 337°
2026-05-05 00:22 34.99139 103.54661 31903 ft 450 kts 337°
2026-05-05 00:23 35.04007 103.52455 31894 ft 449 kts 337°
2026-05-05 00:23 35.09869 103.49796 31880 ft 450 kts 337°
2026-05-05 00:24 35.15745 103.47127 31888 ft 450 kts 337°
2026-05-05 00:24 35.21612 103.44457 31876 ft 450 kts 337°
2026-05-05 00:25 35.27484 103.41780 31890 ft 450 kts 337°
2026-05-05 00:25 35.33383 103.39087 31879 ft 451 kts 337°
2026-05-05 00:26 35.39257 103.36402 31879 ft 451 kts 337°
2026-05-05 00:26 35.45113 103.33721 31877 ft 450 kts 337°
2026-05-05 00:27 35.50978 103.31031 31871 ft 451 kts 337°
2026-05-05 00:27 35.56843 103.28336 31883 ft 451 kts 337°
2026-05-05 00:28 35.62723 103.25631 31875 ft 451 kts 337°
2026-05-05 00:28 35.68623 103.22913 31874 ft 451 kts 337°
2026-05-05 00:29 35.74490 103.20205 31874 ft 451 kts 337°
2026-05-05 00:29 35.80346 103.17499 31879 ft 451 kts 337°
2026-05-05 00:30 35.86230 103.14776 31887 ft 450 kts 337°
2026-05-05 00:30 35.92086 103.12060 31876 ft 451 kts 337°
2026-05-05 00:31 35.97975 103.09324 31891 ft 451 kts 337°
2026-05-05 00:31 36.03829 103.06601 31910 ft 451 kts 337°
2026-05-05 00:32 36.09700 103.03866 31891 ft 451 kts 337°
2026-05-05 00:32 36.15576 103.01123 31886 ft 451 kts 337°
2026-05-05 00:33 36.21463 102.98372 31889 ft 451 kts 337°
2026-05-05 00:33 36.27329 102.95626 31884 ft 451 kts 337°
2026-05-05 00:34 36.33175 102.92884 31896 ft 450 kts 337°
2026-05-05 00:34 36.39034 102.90132 31870 ft 450 kts 337°
2026-05-05 00:35 36.44894 102.87375 31885 ft 450 kts 337°
2026-05-05 00:35 36.50716 102.84631 31884 ft 450 kts 337°
2026-05-05 00:36 36.56595 102.81858 31892 ft 449 kts 336°
2026-05-05 00:36 36.62430 102.79099 31893 ft 449 kts 336°
2026-05-05 00:37 36.68260 102.76338 31879 ft 449 kts 336°
2026-05-05 00:37 36.74108 102.73565 31888 ft 450 kts 336°
2026-05-05 00:38 36.79967 102.70780 31903 ft 451 kts 336°
2026-05-05 00:38 36.85854 102.67981 31902 ft 450 kts 336°
2026-05-05 00:39 36.91673 102.65204 31898 ft 450 kts 336°
2026-05-05 00:39 36.97557 102.62393 31906 ft 450 kts 336°
2026-05-05 00:40 37.03387 102.59603 31902 ft 450 kts 336°
2026-05-05 00:40 37.09240 102.56801 31906 ft 449 kts 336°
2026-05-05 00:41 37.15085 102.53991 31893 ft 449 kts 336°
2026-05-05 00:41 37.20898 102.51190 31891 ft 449 kts 336°
2026-05-05 00:42 37.26689 102.48229 31868 ft 446 kts 330°
2026-05-05 00:42 37.31735 102.43817 31889 ft 442 kts 316°
2026-05-05 00:43 37.35699 102.37921 31870 ft 440 kts 302°
2026-05-05 00:43 37.38319 102.30972 31884 ft 442 kts 289°
2026-05-05 00:44 37.39891 102.23503 31883 ft 442 kts 286°
2026-05-05 00:44 37.41365 102.15973 31885 ft 442 kts 285°
2026-05-05 00:45 37.42821 102.08478 31886 ft 443 kts 285°
2026-05-05 00:45 37.44284 102.00951 31877 ft 442 kts 285°
2026-05-05 00:46 37.45747 101.93391 31882 ft 442 kts 285°
2026-05-05 00:46 37.47191 101.85877 31881 ft 442 kts 285°
2026-05-05 00:47 37.48639 101.78351 31878 ft 441 kts 286°
2026-05-05 00:47 37.50417 101.70988 31874 ft 440 kts 291°
2026-05-05 00:48 37.52715 101.63826 31869 ft 439 kts 295°
2026-05-05 00:48 37.55467 101.56973 31870 ft 438 kts 298°
2026-05-05 00:49 37.58361 101.50160 31867 ft 439 kts 298°
2026-05-05 00:49 37.61240 101.43390 31869 ft 438 kts 298°
2026-05-05 00:50 37.64134 101.36574 31875 ft 438 kts 298°
2026-05-05 00:50 37.67003 101.29809 31862 ft 437 kts 298°
2026-05-05 00:51 37.69861 101.23047 31855 ft 436 kts 298°
2026-05-05 00:51 37.72718 101.16274 31858 ft 436 kts 298°
2026-05-05 00:52 37.75558 101.09524 31857 ft 436 kts 298°
2026-05-05 00:52 37.78411 101.02727 31854 ft 436 kts 298°
2026-05-05 00:53 37.81252 100.95941 31847 ft 436 kts 298°
2026-05-05 00:53 37.84124 100.89181 31847 ft 436 kts 299°
2026-05-05 00:54 37.87132 100.82493 31848 ft 436 kts 300°
2026-05-05 00:54 37.90125 100.75829 31842 ft 436 kts 300°
2026-05-05 00:55 37.93120 100.69123 31849 ft 436 kts 299°
2026-05-05 00:55 37.96103 100.62421 31852 ft 435 kts 299°
2026-05-05 00:56 37.99071 100.55724 31852 ft 435 kts 299°
2026-05-05 00:56 38.02037 100.49018 31844 ft 435 kts 299°
2026-05-05 00:57 38.04988 100.42330 31862 ft 434 kts 299°
2026-05-05 00:57 38.07932 100.35646 31860 ft 434 kts 299°
2026-05-05 00:58 38.10895 100.28900 31860 ft 435 kts 299°
2026-05-05 00:58 38.13842 100.22181 31853 ft 434 kts 299°
2026-05-05 00:59 38.16783 100.15469 31854 ft 434 kts 298°
2026-05-05 00:59 38.19709 100.08765 31861 ft 434 kts 298°
2026-05-05 01:00 38.22632 100.02054 31863 ft 434 kts 298°
2026-05-05 01:00 38.25568 99.95305 31863 ft 432 kts 298°
2026-05-05 01:01 38.28457 99.88645 31852 ft 432 kts 298°
2026-05-05 01:01 38.31375 99.81909 31870 ft 433 kts 298°
2026-05-05 01:02 38.34282 99.75189 31865 ft 434 kts 297°
2026-05-05 01:02 38.37202 99.68411 31874 ft 434 kts 297°
2026-05-05 01:03 38.40098 99.61675 31873 ft 434 kts 297°
2026-05-05 01:03 38.43004 99.54905 31875 ft 434 kts 297°
2026-05-05 01:04 38.45890 99.48169 31891 ft 434 kts 297°
2026-05-05 01:04 38.50244 99.37985 31879 ft 435 kts 297°
2026-05-05 01:05 38.53134 99.31200 31890 ft 435 kts 297°
2026-05-05 01:05 38.56024 99.24400 31895 ft 436 kts 297°
2026-05-05 01:06 38.58913 99.17586 31902 ft 435 kts 297°
2026-05-05 01:06 38.61793 99.10785 31898 ft 435 kts 297°
2026-05-05 01:07 38.64199 99.05097 31904 ft 435 kts 296°
2026-05-05 01:07 38.67068 98.98291 31907 ft 435 kts 296°
2026-05-05 01:08 38.69945 98.91450 31908 ft 435 kts 296°
2026-05-05 01:08 38.72825 98.84589 31908 ft 435 kts 296°
2026-05-05 01:09 38.75682 98.77767 31910 ft 435 kts 296°
2026-05-05 01:09 38.78543 98.70923 31913 ft 435 kts 296°
2026-05-05 01:10 38.81407 98.64065 31932 ft 435 kts 296°
2026-05-05 01:10 38.84252 98.57224 31922 ft 435 kts 295°
2026-05-05 01:11 38.87114 98.50327 31917 ft 435 kts 295°
2026-05-05 01:11 38.89957 98.43462 31925 ft 435 kts 295°
2026-05-05 01:12 38.92799 98.36586 31925 ft 435 kts 295°
2026-05-05 01:12 38.95653 98.29677 31928 ft 437 kts 295°
2026-05-05 01:13 38.98491 98.22775 31926 ft 437 kts 295°
2026-05-05 01:13 39.01324 98.15870 31927 ft 437 kts 295°
2026-05-05 01:14 39.04166 98.08931 31922 ft 437 kts 295°
2026-05-05 01:14 39.07016 98.01956 31914 ft 437 kts 295°
2026-05-05 01:15 39.09835 97.95042 31922 ft 436 kts 295°
2026-05-05 01:15 39.12665 97.88088 31917 ft 438 kts 295°
2026-05-05 01:16 39.15485 97.81136 31907 ft 438 kts 294°
2026-05-05 01:16 39.18294 97.74193 31905 ft 437 kts 294°
2026-05-05 01:17 39.21101 97.67235 31909 ft 437 kts 294°
2026-05-05 01:17 39.23911 97.60272 31910 ft 437 kts 294°
2026-05-05 01:18 39.26722 97.53342 31893 ft 439 kts 294°
2026-05-05 01:18 39.29545 97.46345 31898 ft 439 kts 294°
2026-05-05 01:19 39.32371 97.39319 31900 ft 439 kts 294°
2026-05-05 01:19 39.35185 97.32302 31910 ft 439 kts 294°
2026-05-05 01:20 39.37990 97.25288 31888 ft 438 kts 294°
2026-05-05 01:20 39.40780 97.18296 31885 ft 438 kts 294°
2026-05-05 01:21 39.43561 97.11306 31885 ft 438 kts 294°
2026-05-05 01:21 39.46349 97.04283 31864 ft 438 kts 294°
2026-05-05 01:22 39.49157 96.97276 31860 ft 438 kts 294°
2026-05-05 01:22 39.51988 96.90235 31859 ft 437 kts 294°
2026-05-05 01:23 39.54779 96.83255 31876 ft 438 kts 294°
2026-05-05 01:23 39.57571 96.76252 31855 ft 437 kts 294°
2026-05-05 01:24 39.60373 96.69194 31856 ft 437 kts 294°
2026-05-05 01:24 39.63154 96.62177 31860 ft 438 kts 294°
2026-05-05 01:25 39.65939 96.55143 31852 ft 438 kts 294°
2026-05-05 01:25 39.68726 96.48074 31841 ft 438 kts 294°
2026-05-05 01:26 39.71498 96.41020 31839 ft 438 kts 294°
2026-05-05 01:26 39.74258 96.33973 31837 ft 438 kts 294°
2026-05-05 01:27 39.77034 96.26865 31834 ft 438 kts 294°
2026-05-05 01:27 39.79787 96.19800 31803 ft 438 kts 294°
2026-05-05 01:28 39.82545 96.12708 31802 ft 438 kts 294°
2026-05-05 01:28 39.85295 96.05619 31793 ft 439 kts 293°
2026-05-05 01:29 39.88062 95.98471 31795 ft 440 kts 293°
2026-05-05 01:29 39.90799 95.91380 31785 ft 438 kts 293°
2026-05-05 01:30 39.93525 95.84297 31778 ft 438 kts 293°
2026-05-05 01:30 39.96271 95.77150 31775 ft 438 kts 293°
2026-05-05 01:31 39.98999 95.70028 31763 ft 438 kts 292°
2026-05-05 01:31 40.01700 95.62968 31758 ft 438 kts 292°
2026-05-05 01:32 40.04429 95.55808 31757 ft 438 kts 292°
2026-05-05 01:32 40.07145 95.48667 31757 ft 438 kts 292°
2026-05-05 01:33 40.09851 95.41532 31740 ft 438 kts 292°
2026-05-05 01:33 40.12556 95.34385 31740 ft 438 kts 292°
2026-05-05 01:34 40.15249 95.27251 31744 ft 437 kts 292°
2026-05-05 01:34 40.17921 95.20146 31735 ft 436 kts 292°
2026-05-05 01:35 40.20616 95.12981 31726 ft 436 kts 292°
2026-05-05 01:35 40.23327 95.05876 31725 ft 437 kts 292°
2026-05-05 01:36 40.26026 94.98779 31728 ft 436 kts 292°
2026-05-05 01:36 40.28812 94.91648 31720 ft 439 kts 295°
2026-05-05 01:37 40.32023 94.84817 31722 ft 442 kts 300°
2026-05-05 01:37 40.35701 94.78316 31722 ft 445 kts 303°
2026-05-05 01:38 40.39541 94.71958 31731 ft 445 kts 303°
2026-05-05 01:38 40.43392 94.65589 31721 ft 444 kts 303°
2026-05-05 01:39 40.47227 94.59233 31719 ft 444 kts 303°
2026-05-05 01:39 40.51064 94.52859 31721 ft 446 kts 303°
2026-05-05 01:40 40.54939 94.46409 31721 ft 446 kts 303°
2026-05-05 01:40 40.58763 94.40031 31735 ft 446 kts 303°
2026-05-05 01:41 40.62614 94.33596 31754 ft 446 kts 303°
2026-05-05 01:41 40.66458 94.27157 31747 ft 446 kts 303°
2026-05-05 01:42 40.70296 94.20714 31749 ft 446 kts 303°
2026-05-05 01:42 40.74136 94.14254 31745 ft 448 kts 303°
2026-05-05 01:43 40.78004 94.07732 31764 ft 448 kts 303°
2026-05-05 01:43 40.81832 94.01263 31763 ft 448 kts 303°
2026-05-05 01:44 40.85667 93.94765 31797 ft 448 kts 303°
2026-05-05 01:44 40.89492 93.88272 31774 ft 446 kts 303°
2026-05-05 01:45 40.93411 93.81906 31770 ft 448 kts 305°
2026-05-05 01:45 40.97476 93.75630 31766 ft 449 kts 305°
2026-05-05 01:46 41.01530 93.69358 31771 ft 450 kts 305°
2026-05-05 01:46 41.05599 93.63044 31770 ft 450 kts 305°
2026-05-05 01:47 41.08989 93.57770 31774 ft 450 kts 305°
2026-05-05 01:47 41.13058 93.51426 31773 ft 450 kts 305°
2026-05-05 01:48 41.17100 93.45109 31771 ft 449 kts 305°
2026-05-05 01:48 41.21151 93.38766 31770 ft 449 kts 305°
2026-05-05 01:49 41.25202 93.32409 31767 ft 449 kts 305°
2026-05-05 01:49 41.29234 93.26069 31769 ft 449 kts 304°
2026-05-05 01:50 41.33258 93.19733 31778 ft 447 kts 304°
2026-05-05 01:50 41.37256 93.13419 31770 ft 447 kts 304°
2026-05-05 01:51 41.41260 93.07081 31770 ft 447 kts 304°
2026-05-05 01:51 41.45276 93.00710 31775 ft 447 kts 304°
2026-05-05 01:52 41.49283 92.94342 31772 ft 447 kts 304°
2026-05-05 01:52 41.53283 92.87972 31809 ft 447 kts 304°
2026-05-05 01:53 41.57256 92.81638 31779 ft 443 kts 304°
2026-05-05 01:53 41.61181 92.75357 31776 ft 442 kts 304°
2026-05-05 01:54 41.65137 92.69014 31782 ft 442 kts 304°
2026-05-05 01:54 41.69083 92.62675 31781 ft 443 kts 304°
2026-05-05 01:55 41.73026 92.56327 31785 ft 444 kts 304°
2026-05-05 01:55 41.76958 92.49988 31796 ft 441 kts 304°
2026-05-05 01:56 41.80880 92.43651 31802 ft 440 kts 303°
2026-05-05 01:56 41.84799 92.37300 31791 ft 440 kts 303°
2026-05-05 01:57 41.88689 92.30986 31790 ft 440 kts 303°
2026-05-05 01:57 41.92598 92.24623 31794 ft 441 kts 303°
2026-05-05 01:58 41.96509 92.18248 31798 ft 442 kts 303°
2026-05-05 01:58 42.00429 92.11842 31819 ft 442 kts 304°
2026-05-05 01:59 42.04327 92.05461 31810 ft 442 kts 303°
2026-05-05 01:59 42.08240 91.99039 31805 ft 443 kts 303°
2026-05-05 02:00 42.12118 91.92659 31816 ft 443 kts 303°
2026-05-05 02:00 42.16040 91.86186 31817 ft 444 kts 303°
2026-05-05 02:01 42.19947 91.79727 31831 ft 445 kts 303°
2026-05-05 02:01 42.24078 91.73437 31826 ft 449 kts 308°
2026-05-05 02:02 42.28585 91.67543 31824 ft 451 kts 310°
2026-05-05 02:02 42.33158 91.61705 31824 ft 451 kts 310°
2026-05-05 02:03 42.37710 91.55880 31815 ft 451 kts 310°
2026-05-05 02:03 42.42263 91.50034 31827 ft 452 kts 310°
2026-05-05 02:04 42.46820 91.44171 31812 ft 452 kts 310°
2026-05-05 02:04 42.51406 91.38261 31811 ft 452 kts 310°
2026-05-05 02:05 42.55955 91.32384 31804 ft 452 kts 310°
2026-05-05 02:05 42.60502 91.26498 31804 ft 452 kts 310°
2026-05-05 02:06 42.65049 91.20590 31804 ft 453 kts 311°
2026-05-05 02:06 42.69628 91.14637 31794 ft 453 kts 310°
2026-05-05 02:07 42.74164 91.08719 31791 ft 455 kts 311°
2026-05-05 02:07 42.78754 91.02720 31792 ft 455 kts 311°
2026-05-05 02:08 42.83320 90.96732 31799 ft 456 kts 310°
2026-05-05 02:08 42.87634 90.90421 31802 ft 454 kts 306°
2026-05-05 02:09 42.91477 90.83590 31798 ft 451 kts 301°
2026-05-05 02:09 42.94861 90.76407 31808 ft 450 kts 298°
2026-05-05 02:10 42.98166 90.69127 31812 ft 452 kts 298°
2026-05-05 02:10 43.01486 90.61797 31813 ft 453 kts 298°
2026-05-05 02:11 43.04798 90.54467 31846 ft 454 kts 298°
2026-05-05 02:11 43.08116 90.47114 31840 ft 454 kts 298°
2026-05-05 02:12 43.13085 90.36060 31848 ft 454 kts 298°
2026-05-05 02:13 43.16404 90.28649 31860 ft 455 kts 298°
2026-05-05 02:13 43.19696 90.21278 31904 ft 455 kts 298°
2026-05-05 02:14 43.22999 90.13883 31906 ft 455 kts 298°
2026-05-05 02:14 43.26329 90.06423 31909 ft 455 kts 298°
2026-05-05 02:15 43.29622 89.99011 31960 ft 455 kts 298°
2026-05-05 02:15 43.32914 89.91573 31961 ft 456 kts 298°
2026-05-05 02:16 43.36203 89.84128 32004 ft 456 kts 298°
2026-05-05 02:16 43.39490 89.76665 31987 ft 455 kts 298°
2026-05-05 02:17 43.42766 89.69206 31994 ft 456 kts 298°
2026-05-05 02:17 43.46041 89.61729 32023 ft 455 kts 298°
2026-05-05 02:18 43.49305 89.54253 32014 ft 455 kts 298°
2026-05-05 02:18 43.52588 89.46712 32038 ft 455 kts 298°
2026-05-05 02:19 43.55836 89.39235 32041 ft 455 kts 298°
2026-05-05 02:19 43.59154 89.31793 32051 ft 455 kts 299°
2026-05-05 02:20 43.62481 89.24366 32057 ft 455 kts 299°
2026-05-05 02:20 43.65808 89.16902 32071 ft 453 kts 298°
2026-05-05 02:21 43.69104 89.09474 32066 ft 453 kts 298°
2026-05-05 02:21 43.72392 89.02037 32071 ft 452 kts 298°
2026-05-05 02:22 43.75664 88.94618 32066 ft 452 kts 298°
2026-05-05 02:22 43.78950 88.87146 32068 ft 453 kts 298°
2026-05-05 02:23 43.82216 88.79699 32062 ft 452 kts 298°
2026-05-05 02:23 43.85467 88.72275 32072 ft 450 kts 298°
2026-05-05 02:24 43.88711 88.64845 32067 ft 449 kts 298°
2026-05-05 02:24 43.91936 88.57435 32066 ft 449 kts 298°
2026-05-05 02:25 43.95162 88.50007 32064 ft 449 kts 298°
2026-05-05 02:25 43.98402 88.42523 32070 ft 450 kts 298°
2026-05-05 02:26 44.01612 88.35089 32072 ft 449 kts 298°
2026-05-05 02:26 44.04820 88.27653 32072 ft 449 kts 297°
2026-05-05 02:27 44.07495 88.21420 32064 ft 449 kts 297°
2026-05-05 02:27 44.10711 88.13909 32064 ft 449 kts 297°
2026-05-05 02:28 44.13908 88.06422 32064 ft 449 kts 297°
2026-05-05 02:28 44.17162 87.99013 32063 ft 450 kts 300°
2026-05-05 02:29 44.20850 87.91883 32073 ft 452 kts 303°
2026-05-05 02:29 44.24626 87.84888 32051 ft 450 kts 303°
2026-05-05 02:30 44.28392 87.77890 32043 ft 450 kts 303°
2026-05-05 02:30 44.32145 87.70894 32054 ft 450 kts 303°
2026-05-05 02:31 44.35920 87.63948 32041 ft 449 kts 304°
2026-05-05 02:31 44.39759 87.56996 32067 ft 449 kts 304°
2026-05-05 02:32 44.43545 87.50111 32043 ft 448 kts 303°
2026-05-05 02:32 44.47341 87.43168 32037 ft 448 kts 303°
2026-05-05 02:33 44.51114 87.36244 32035 ft 447 kts 303°
2026-05-05 02:33 44.54909 87.29265 32029 ft 447 kts 303°
2026-05-05 02:34 44.58799 87.22463 32065 ft 448 kts 305°
2026-05-05 02:34 44.62747 87.15721 32039 ft 446 kts 305°
2026-05-05 02:35 44.66691 87.08920 32029 ft 446 kts 305°
2026-05-05 02:35 44.70594 87.02150 32028 ft 446 kts 305°
2026-05-05 02:36 44.74518 86.95349 32022 ft 446 kts 305°
2026-05-05 02:36 44.78419 86.88589 32036 ft 445 kts 305°
2026-05-05 02:37 44.82334 86.81786 32028 ft 445 kts 305°
2026-05-05 02:37 44.86206 86.74979 32006 ft 444 kts 304°
2026-05-05 02:38 44.90039 86.68154 32018 ft 444 kts 304°
2026-05-05 02:38 44.93884 86.61286 32013 ft 444 kts 304°
2026-05-05 02:39 44.97716 86.54425 32008 ft 444 kts 304°
2026-05-05 02:39 45.01541 86.47557 32002 ft 444 kts 304°
2026-05-05 02:40 45.05354 86.40699 32000 ft 445 kts 304°
2026-05-05 02:40 45.09175 86.33807 32002 ft 445 kts 304°
2026-05-05 02:41 45.12994 86.26904 31996 ft 444 kts 304°
2026-05-05 02:41 45.16797 86.20012 31992 ft 444 kts 304°
2026-05-05 02:42 45.20591 86.13117 31988 ft 445 kts 304°
2026-05-05 02:42 45.24420 86.06140 31992 ft 445 kts 304°
2026-05-05 02:43 45.28223 85.99201 31993 ft 445 kts 304°
2026-05-05 02:43 45.32030 85.92233 32029 ft 446 kts 304°
2026-05-05 02:44 45.35817 85.85284 31999 ft 446 kts 304°
2026-05-05 02:44 45.39638 85.78259 31988 ft 446 kts 304°
2026-05-05 02:45 45.43420 85.71286 31992 ft 446 kts 304°
2026-05-05 02:45 45.47241 85.64225 31991 ft 446 kts 304°
2026-05-05 02:46 45.51018 85.57222 32000 ft 448 kts 304°
2026-05-05 02:46 45.54812 85.50171 31992 ft 449 kts 304°
2026-05-05 02:47 45.58635 85.43051 31989 ft 449 kts 304°
2026-05-05 02:47 45.62426 85.35970 31990 ft 449 kts 304°
2026-05-05 02:48 45.66212 85.28870 31973 ft 449 kts 304°
2026-05-05 02:48 45.70020 85.21705 31999 ft 457 kts 306°
2026-05-05 02:49 45.73921 85.14449 31994 ft 460 kts 306°
2026-05-05 02:49 45.77819 85.07190 32003 ft 460 kts 306°
2026-05-05 02:50 45.81703 84.99922 32006 ft 460 kts 306°
2026-05-05 02:50 45.85578 84.92641 32015 ft 460 kts 305°
2026-05-05 02:51 45.89472 84.85282 32010 ft 460 kts 307°
2026-05-05 02:51 45.93328 84.77996 32028 ft 458 kts 307°
2026-05-05 02:52 45.97182 84.70709 32031 ft 457 kts 307°
2026-05-05 02:52 46.01023 84.63420 32031 ft 457 kts 307°
2026-05-05 02:53 46.04848 84.56134 32068 ft 457 kts 307°
2026-05-05 02:53 46.08693 84.48781 32054 ft 457 kts 308°
2026-05-05 02:54 46.12509 84.41481 32052 ft 456 kts 308°
2026-05-05 02:54 46.16304 84.34191 32067 ft 453 kts 308°
2026-05-05 02:55 46.20088 84.26910 32076 ft 453 kts 308°
2026-05-05 02:55 46.23880 84.19578 32109 ft 454 kts 308°
2026-05-05 02:56 46.27668 84.12248 32101 ft 454 kts 308°
2026-05-05 02:56 46.31443 84.04909 32114 ft 455 kts 308°
2026-05-05 02:57 46.35208 83.97550 32086 ft 454 kts 308°
2026-05-05 02:57 46.38946 83.90210 32109 ft 451 kts 309°
2026-05-05 02:58 46.42664 83.82895 32120 ft 452 kts 309°
2026-05-05 02:58 46.46383 83.75567 32119 ft 452 kts 309°
2026-05-05 02:59 46.50116 83.68189 32124 ft 452 kts 309°
2026-05-05 02:59 46.53833 83.60818 32124 ft 452 kts 309°
2026-05-05 03:00 46.57542 83.53439 32122 ft 452 kts 309°
2026-05-05 03:00 46.61256 83.46009 32122 ft 450 kts 309°
2026-05-05 03:01 46.64937 83.38654 32123 ft 450 kts 309°
2026-05-05 03:01 46.68403 83.30999 32126 ft 452 kts 306°
2026-05-05 03:02 46.71752 83.23255 32126 ft 452 kts 306°
2026-05-05 03:02 46.75092 83.15493 32126 ft 452 kts 306°
2026-05-05 03:03 46.78442 83.07690 32121 ft 452 kts 306°
2026-05-05 03:03 46.81704 82.99919 32117 ft 451 kts 303°
2026-05-05 03:04 46.84493 82.91612 32121 ft 455 kts 297°
2026-05-05 03:04 46.86610 82.82893 32123 ft 459 kts 291°
2026-05-05 03:05 46.88052 82.73676 32125 ft 464 kts 285°
2026-05-05 03:05 46.89027 82.64339 32123 ft 465 kts 284°
2026-05-05 03:06 46.89966 82.54992 32118 ft 464 kts 284°
2026-05-05 03:06 46.90903 82.45653 32132 ft 464 kts 284°
2026-05-05 03:07 46.91834 82.36308 32121 ft 464 kts 284°
2026-05-05 03:07 46.92758 82.26965 32119 ft 464 kts 283°
2026-05-05 03:08 46.93519 82.19199 32094 ft 463 kts 283°
2026-05-05 03:08 46.94427 82.09843 32117 ft 462 kts 283°
2026-05-05 03:09 46.95324 82.00506 32126 ft 462 kts 283°
2026-05-05 03:09 46.96213 81.91199 32123 ft 462 kts 283°
2026-05-05 03:10 46.97101 81.81823 32119 ft 462 kts 283°
2026-05-05 03:10 46.97972 81.72518 32105 ft 463 kts 283°
2026-05-05 03:11 46.98834 81.63138 32121 ft 463 kts 283°
2026-05-05 03:11 46.99688 81.53749 32123 ft 464 kts 283°
2026-05-05 03:12 47.00530 81.44396 32126 ft 464 kts 282°
2026-05-05 03:12 47.01366 81.35034 32125 ft 464 kts 282°
2026-05-05 03:13 47.02196 81.25641 32119 ft 464 kts 282°
2026-05-05 03:13 47.03014 81.16275 32122 ft 464 kts 282°
2026-05-05 03:14 47.03826 81.06867 32128 ft 464 kts 282°
2026-05-05 03:14 47.04637 80.97449 32125 ft 464 kts 282°
2026-05-05 03:15 47.05453 80.88040 32115 ft 465 kts 282°
2026-05-05 03:15 47.06255 80.78585 32130 ft 466 kts 282°
2026-05-05 03:16 47.07040 80.69185 32136 ft 466 kts 282°
2026-05-05 03:16 47.07823 80.59711 32127 ft 466 kts 282°
2026-05-05 03:17 47.08595 80.50274 32105 ft 466 kts 282°
2026-05-05 03:17 47.09364 80.40830 32133 ft 467 kts 281°
2026-05-05 03:18 47.10120 80.31347 32133 ft 467 kts 281°
2026-05-05 03:18 47.10870 80.21861 32139 ft 467 kts 281°
2026-05-05 03:19 47.11976 80.07675 32126 ft 467 kts 281°
2026-05-05 03:19 47.12711 79.98148 32141 ft 468 kts 280°
2026-05-05 03:20 47.13430 79.88634 32155 ft 468 kts 280°
2026-05-05 03:20 47.14169 79.79090 32158 ft 468 kts 280°
2026-05-05 03:21 47.14911 79.69579 32156 ft 467 kts 280°
2026-05-05 03:21 47.15641 79.60077 32149 ft 468 kts 280°
2026-05-05 03:22 47.16355 79.50599 32163 ft 469 kts 279°
2026-05-05 03:22 47.17062 79.41066 32165 ft 469 kts 279°
2026-05-05 03:23 47.17762 79.31508 32171 ft 469 kts 279°
2026-05-05 03:23 47.18455 79.21917 32171 ft 469 kts 279°
2026-05-05 03:24 47.19141 79.12372 32167 ft 470 kts 279°
2026-05-05 03:24 47.19813 79.02789 32175 ft 470 kts 279°
2026-05-05 03:25 47.20468 78.93236 32176 ft 470 kts 279°
2026-05-05 03:25 47.21113 78.83675 32175 ft 470 kts 279°
2026-05-05 03:26 47.21755 78.74048 32168 ft 471 kts 278°
2026-05-05 03:26 47.22385 78.64443 32174 ft 472 kts 278°
2026-05-05 03:27 47.23006 78.54837 32183 ft 471 kts 278°
2026-05-05 03:27 47.23618 78.45257 32176 ft 469 kts 278°
2026-05-05 03:28 47.24221 78.35701 32176 ft 469 kts 278°
2026-05-05 03:28 47.24819 78.26115 32172 ft 470 kts 278°
2026-05-05 03:29 47.25411 78.16454 32175 ft 471 kts 278°
2026-05-05 03:29 47.25992 78.06842 32175 ft 471 kts 278°
2026-05-05 03:30 47.26563 77.97251 32181 ft 470 kts 278°
2026-05-05 03:30 47.27127 77.87677 32175 ft 471 kts 277°
2026-05-05 03:31 47.27687 77.78017 32181 ft 471 kts 277°
2026-05-05 03:31 47.28236 77.68382 32181 ft 471 kts 277°
2026-05-05 03:32 47.28777 77.58751 32181 ft 471 kts 277°
2026-05-05 03:32 47.29309 77.49117 32187 ft 471 kts 277°
2026-05-05 03:33 47.29834 77.39496 32179 ft 472 kts 277°
2026-05-05 03:33 47.30349 77.29858 32187 ft 472 kts 277°
2026-05-05 03:34 47.30856 77.20159 32189 ft 471 kts 277°
2026-05-05 03:34 47.31352 77.10547 32185 ft 471 kts 277°
2026-05-05 03:35 47.32092 77.00963 32191 ft 469 kts 281°
2026-05-05 03:35 47.33075 76.91380 32188 ft 469 kts 281°
2026-05-05 03:36 47.34048 76.81850 32189 ft 469 kts 281°
2026-05-05 03:36 47.35004 76.72353 32194 ft 470 kts 281°
2026-05-05 03:37 47.35953 76.62820 32190 ft 470 kts 281°
2026-05-05 03:37 47.36900 76.53230 32188 ft 471 kts 281°
2026-05-05 03:38 47.37837 76.43635 32191 ft 471 kts 280°
2026-05-05 03:38 47.38763 76.34068 32192 ft 471 kts 280°
2026-05-05 03:39 47.39682 76.24490 32198 ft 471 kts 280°
2026-05-05 03:39 47.40596 76.14870 32181 ft 469 kts 280°
2026-05-05 03:40 47.41496 76.05339 32187 ft 470 kts 280°
2026-05-05 03:40 47.42388 75.95772 32189 ft 470 kts 280°
2026-05-05 03:41 47.43272 75.86205 32189 ft 469 kts 279°
2026-05-05 03:41 47.44148 75.76645 32189 ft 469 kts 279°
2026-05-05 03:42 47.45017 75.67081 32183 ft 470 kts 279°
2026-05-05 03:42 47.45882 75.57473 32188 ft 471 kts 279°
2026-05-05 03:43 47.46733 75.47892 32187 ft 471 kts 279°
2026-05-05 03:43 47.47581 75.38277 32190 ft 471 kts 279°
2026-05-05 03:44 47.48424 75.28618 32187 ft 471 kts 279°
2026-05-05 03:44 47.49255 75.19024 32184 ft 470 kts 279°
2026-05-05 03:45 47.50076 75.09430 32186 ft 470 kts 278°
2026-05-05 03:45 47.50889 74.99821 32190 ft 470 kts 278°
2026-05-05 03:46 47.51697 74.90175 32184 ft 471 kts 278°
2026-05-05 03:46 47.52492 74.80601 32183 ft 471 kts 278°
2026-05-05 03:47 47.53287 74.70946 32177 ft 471 kts 278°
2026-05-05 03:47 47.54069 74.61304 32179 ft 471 kts 278°
2026-05-05 03:48 47.54844 74.51661 32178 ft 471 kts 278°
2026-05-05 03:48 47.55609 74.42036 32182 ft 471 kts 278°
2026-05-05 03:49 47.56371 74.32370 32175 ft 472 kts 278°
2026-05-05 03:49 47.57003 74.24282 32185 ft 471 kts 277°
2026-05-05 03:50 47.57742 74.14686 32184 ft 470 kts 277°
2026-05-05 03:50 47.58478 74.05010 32184 ft 470 kts 277°
2026-05-05 03:51 47.59203 73.95392 32183 ft 470 kts 277°
2026-05-05 03:51 47.59921 73.85763 32179 ft 470 kts 277°
2026-05-05 03:52 47.60631 73.76127 32181 ft 470 kts 277°
2026-05-05 03:52 47.61334 73.66464 32181 ft 470 kts 277°
2026-05-05 03:53 47.62031 73.56769 32181 ft 470 kts 277°
2026-05-05 03:53 47.62717 73.47113 32182 ft 470 kts 277°
2026-05-05 03:54 47.63397 73.37450 32184 ft 471 kts 276°
2026-05-05 03:54 47.64069 73.27763 32182 ft 471 kts 276°
2026-05-05 03:55 47.64726 73.18174 32180 ft 469 kts 276°
2026-05-05 03:55 47.65376 73.08543 32176 ft 468 kts 276°
2026-05-05 03:56 47.66019 72.98911 32175 ft 468 kts 276°
2026-05-05 03:56 47.66655 72.89290 32172 ft 468 kts 276°
2026-05-05 03:57 47.67281 72.79653 32173 ft 469 kts 276°
2026-05-05 03:57 47.67901 72.69997 32171 ft 468 kts 276°
2026-05-05 03:58 47.68510 72.60376 32182 ft 469 kts 276°
2026-05-05 03:58 47.69115 72.50700 32167 ft 468 kts 275°
2026-05-05 03:59 47.69706 72.41102 32186 ft 468 kts 275°
2026-05-05 03:59 47.70295 72.31400 32184 ft 468 kts 275°
2026-05-05 04:00 47.70872 72.21784 32167 ft 467 kts 275°
2026-05-05 04:00 47.71436 72.12202 32167 ft 466 kts 275°
2026-05-05 04:01 47.71994 72.02594 32163 ft 466 kts 275°
2026-05-05 04:01 47.72540 71.93001 32164 ft 466 kts 275°
2026-05-05 04:02 47.73081 71.83350 32152 ft 466 kts 275°
2026-05-05 04:02 47.73534 71.73748 32155 ft 466 kts 274°
2026-05-05 04:03 47.73928 71.64150 32151 ft 466 kts 274°
2026-05-05 04:03 47.74319 71.54513 32152 ft 465 kts 273°
2026-05-05 04:04 47.74702 71.44880 32146 ft 465 kts 273°
2026-05-05 04:04 47.75076 71.35282 32147 ft 465 kts 273°
2026-05-05 04:05 47.75444 71.25664 32142 ft 465 kts 273°
2026-05-05 04:05 47.75804 71.16046 32142 ft 465 kts 273°
2026-05-05 04:06 47.76156 71.06447 32156 ft 466 kts 273°
2026-05-05 04:06 47.76499 70.96819 32134 ft 466 kts 273°
2026-05-05 04:07 47.76835 70.87198 32137 ft 466 kts 272°
2026-05-05 04:07 47.77164 70.77553 32130 ft 466 kts 272°
2026-05-05 04:08 47.77484 70.67925 32129 ft 466 kts 272°
2026-05-05 04:08 47.77797 70.58287 32130 ft 467 kts 272°
2026-05-05 04:09 47.78101 70.48631 32130 ft 467 kts 272°
2026-05-05 04:09 47.78398 70.38931 32126 ft 467 kts 272°
2026-05-05 04:10 47.78686 70.29299 32123 ft 466 kts 272°
2026-05-05 04:10 47.78967 70.19611 32120 ft 468 kts 272°
2026-05-05 04:11 47.79240 70.09987 32120 ft 467 kts 271°
2026-05-05 04:11 47.79503 70.00309 32113 ft 467 kts 271°
2026-05-05 04:12 47.79758 69.90659 32113 ft 467 kts 271°
2026-05-05 04:12 47.80005 69.80975 32113 ft 467 kts 271°
2026-05-05 04:13 47.80246 69.71331 32109 ft 467 kts 271°
2026-05-05 04:13 47.80478 69.61618 32105 ft 467 kts 271°
2026-05-05 04:14 47.80700 69.51961 32105 ft 467 kts 271°
2026-05-05 04:14 47.80913 69.42327 32099 ft 467 kts 271°
2026-05-05 04:15 47.81120 69.32608 32099 ft 467 kts 271°
2026-05-05 04:15 47.81319 69.22980 32094 ft 467 kts 270°
2026-05-05 04:16 47.81507 69.13266 32089 ft 467 kts 270°
2026-05-05 04:16 47.81685 69.03653 32092 ft 466 kts 270°
2026-05-05 04:17 47.81854 68.93947 32084 ft 466 kts 270°
2026-05-05 04:17 47.81937 68.84300 32085 ft 466 kts 267°
2026-05-05 04:18 47.81459 68.74724 32075 ft 465 kts 262°
2026-05-05 04:18 47.80606 68.65177 32075 ft 465 kts 261°
2026-05-05 04:19 47.79730 68.55605 32072 ft 465 kts 261°
2026-05-05 04:19 47.78851 68.46068 32072 ft 465 kts 261°
2026-05-05 04:20 47.77966 68.36543 32072 ft 465 kts 261°
2026-05-05 04:20 47.77074 68.27035 32069 ft 465 kts 261°
2026-05-05 04:21 47.76172 68.17514 32069 ft 465 kts 261°
2026-05-05 04:21 47.75261 68.07984 32063 ft 465 kts 261°
2026-05-05 04:22 47.74341 67.98466 32064 ft 465 kts 261°
2026-05-05 04:22 47.73407 67.88901 32064 ft 465 kts 261°
2026-05-05 04:23 47.72474 67.79423 32064 ft 465 kts 260°
2026-05-05 04:23 47.71246 67.69950 32065 ft 464 kts 257°
2026-05-05 04:24 47.69862 67.60588 32064 ft 464 kts 256°
2026-05-05 04:25 47.67759 67.46533 32048 ft 464 kts 256°
2026-05-05 04:25 47.66347 67.37184 32043 ft 464 kts 256°
2026-05-05 04:26 47.64928 67.27838 32045 ft 464 kts 256°
2026-05-05 04:26 47.63502 67.18500 32052 ft 464 kts 256°
2026-05-05 04:27 47.62067 67.09168 32038 ft 464 kts 256°
2026-05-05 04:27 47.60627 66.99855 32038 ft 464 kts 256°
2026-05-05 04:28 47.59177 66.90546 32041 ft 464 kts 256°
2026-05-05 04:28 47.57711 66.81194 32039 ft 464 kts 256°
2026-05-05 04:29 47.56243 66.71884 32036 ft 463 kts 256°
2026-05-05 04:29 47.54740 66.62591 32036 ft 463 kts 255°
2026-05-05 04:30 47.53221 66.53367 32034 ft 463 kts 255°
2026-05-05 04:30 47.51676 66.44049 32028 ft 463 kts 255°
2026-05-05 04:31 47.50133 66.34797 32031 ft 464 kts 255°
2026-05-05 04:31 47.48581 66.25538 32023 ft 464 kts 255°
2026-05-05 04:32 47.47278 66.17804 32023 ft 464 kts 255°
2026-05-05 04:32 47.45721 66.08609 32020 ft 464 kts 255°
2026-05-05 04:33 47.44135 65.99306 32025 ft 464 kts 255°
2026-05-05 04:33 47.42550 65.90066 32018 ft 464 kts 255°
2026-05-05 04:34 47.40979 65.80837 32012 ft 465 kts 255°
2026-05-05 04:34 47.39456 65.71525 32011 ft 465 kts 255°
2026-05-05 04:35 47.37931 65.62258 32010 ft 465 kts 255°
2026-05-05 04:35 47.36389 65.52985 32011 ft 465 kts 255°
2026-05-05 04:36 47.34832 65.43695 32006 ft 465 kts 255°
2026-05-05 04:36 47.33275 65.34456 32004 ft 465 kts 255°
2026-05-05 04:37 47.31706 65.25207 32010 ft 465 kts 255°
2026-05-05 04:37 47.30126 65.15944 32002 ft 465 kts 255°
2026-05-05 04:38 47.28544 65.06713 32003 ft 465 kts 255°
2026-05-05 04:38 47.26948 64.97445 32004 ft 465 kts 255°
2026-05-05 04:39 47.25350 64.88221 31994 ft 465 kts 255°
2026-05-05 04:39 47.23737 64.78983 31999 ft 465 kts 255°
2026-05-05 04:40 47.22126 64.69792 31993 ft 465 kts 255°
2026-05-05 04:40 47.20503 64.60585 31993 ft 465 kts 255°
2026-05-05 04:41 47.18869 64.51335 31994 ft 465 kts 255°
2026-05-05 04:41 47.17253 64.42141 31983 ft 465 kts 255°
2026-05-05 04:42 47.15625 64.32954 31988 ft 465 kts 255°
2026-05-05 04:42 47.13989 64.23787 31990 ft 465 kts 255°
2026-05-05 04:43 47.12340 64.14607 31990 ft 465 kts 255°
2026-05-05 04:43 47.10683 64.05430 31988 ft 464 kts 255°
2026-05-05 04:44 47.09011 63.96224 31986 ft 464 kts 255°
2026-05-05 04:44 47.07340 63.87065 31985 ft 465 kts 255°
2026-05-05 04:45 47.05664 63.77926 31982 ft 465 kts 255°
2026-05-05 04:45 47.03976 63.68765 31982 ft 465 kts 255°
2026-05-05 04:46 47.02284 63.59642 31981 ft 465 kts 255°
2026-05-05 04:46 47.00572 63.50438 31980 ft 465 kts 255°
2026-05-05 04:47 46.98865 63.41312 31976 ft 465 kts 255°
2026-05-05 04:47 46.97148 63.32174 31979 ft 465 kts 254°
2026-05-05 04:48 46.95425 63.23066 31978 ft 466 kts 255°
2026-05-05 04:48 46.93692 63.13936 31976 ft 466 kts 255°
2026-05-05 04:49 46.91937 63.04733 31978 ft 466 kts 254°
2026-05-05 04:49 46.90188 62.95611 31977 ft 466 kts 254°
2026-05-05 04:50 46.88425 62.86471 31977 ft 467 kts 254°
2026-05-05 04:50 46.86663 62.77376 31974 ft 467 kts 254°
2026-05-05 04:51 46.84883 62.68240 31971 ft 467 kts 254°
2026-05-05 04:51 46.83081 62.59042 31973 ft 467 kts 254°
2026-05-05 04:52 46.81301 62.49924 31971 ft 467 kts 254°
2026-05-05 04:52 46.79520 62.40819 31970 ft 467 kts 253°
2026-05-05 04:53 46.77721 62.31718 31967 ft 467 kts 253°
2026-05-05 04:53 46.75912 62.22620 31968 ft 467 kts 253°
2026-05-05 04:54 46.74091 62.13511 31970 ft 467 kts 253°
2026-05-05 04:54 46.72272 62.04434 31967 ft 466 kts 253°
2026-05-05 04:55 46.70440 61.95361 31965 ft 466 kts 253°
2026-05-05 04:55 46.68607 61.86316 31965 ft 466 kts 253°
2026-05-05 04:56 46.66763 61.77261 31965 ft 466 kts 253°
2026-05-05 04:56 46.64911 61.68201 31968 ft 465 kts 253°
2026-05-05 04:57 46.63063 61.59203 31964 ft 465 kts 252°
2026-05-05 04:57 46.61199 61.50171 31964 ft 465 kts 252°
2026-05-05 04:58 46.59330 61.41154 31963 ft 465 kts 252°
2026-05-05 04:58 46.57457 61.32150 31963 ft 465 kts 252°
2026-05-05 04:59 46.55575 61.23154 31966 ft 464 kts 252°
2026-05-05 04:59 46.53687 61.14167 31960 ft 464 kts 252°
2026-05-05 05:00 46.51791 61.05182 31960 ft 464 kts 252°
2026-05-05 05:00 46.49894 60.96222 31967 ft 464 kts 252°
2026-05-05 05:01 46.47992 60.87283 31957 ft 463 kts 251°
2026-05-05 05:01 46.46079 60.78345 31956 ft 463 kts 251°
2026-05-05 05:02 46.44163 60.69427 31955 ft 463 kts 251°
2026-05-05 05:02 46.42243 60.60528 31956 ft 463 kts 252°
2026-05-05 05:03 46.40323 60.51670 31952 ft 460 kts 251°
2026-05-05 05:03 46.38400 60.42824 31952 ft 460 kts 251°
2026-05-05 05:04 46.36466 60.33966 31955 ft 460 kts 251°
2026-05-05 05:04 46.34527 60.25129 31955 ft 460 kts 251°
2026-05-05 05:05 46.32580 60.16296 31951 ft 460 kts 251°
2026-05-05 05:05 46.30632 60.07492 31952 ft 460 kts 251°
2026-05-05 05:06 46.28664 59.98643 31954 ft 460 kts 251°
2026-05-05 05:06 46.26699 59.89846 31953 ft 460 kts 251°
2026-05-05 05:07 46.24723 59.81063 31944 ft 458 kts 251°
2026-05-05 05:07 46.22758 59.72331 31942 ft 458 kts 251°
2026-05-05 05:08 46.20769 59.63518 31943 ft 458 kts 251°
2026-05-05 05:08 46.18795 59.54835 31941 ft 458 kts 251°
2026-05-05 05:09 46.16786 59.46056 31940 ft 457 kts 251°
2026-05-05 05:09 46.14789 59.37372 31936 ft 456 kts 251°
2026-05-05 05:10 46.12783 59.28683 31937 ft 456 kts 251°
2026-05-05 05:10 46.10774 59.20022 31934 ft 456 kts 251°
2026-05-05 05:11 46.08757 59.11357 31932 ft 455 kts 251°
2026-05-05 05:11 46.06738 59.02723 31931 ft 455 kts 251°
2026-05-05 05:12 46.04714 58.94099 31928 ft 455 kts 251°
2026-05-05 05:12 46.02672 58.85435 31921 ft 455 kts 250°
2026-05-05 05:13 46.00635 58.76824 31922 ft 455 kts 250°
2026-05-05 05:13 45.98589 58.68209 31914 ft 456 kts 250°
2026-05-05 05:14 45.96523 58.59544 31924 ft 456 kts 250°
2026-05-05 05:14 45.94468 58.50960 31913 ft 456 kts 250°
2026-05-05 05:15 45.92398 58.42343 31911 ft 455 kts 250°
2026-05-05 05:15 45.90317 58.33720 31914 ft 455 kts 250°
2026-05-05 05:16 45.88242 58.25150 31902 ft 455 kts 250°
2026-05-05 05:16 45.86160 58.16592 31906 ft 455 kts 250°
2026-05-05 05:17 45.84070 58.08030 31898 ft 455 kts 250°
2026-05-05 05:17 45.81977 57.99488 31882 ft 455 kts 250°
2026-05-05 05:18 45.79871 57.90932 31883 ft 455 kts 250°
2026-05-05 05:18 45.77747 57.82339 31882 ft 455 kts 250°
2026-05-05 05:19 45.75625 57.73797 31883 ft 455 kts 250°
2026-05-05 05:19 45.73504 57.65272 31880 ft 454 kts 250°
2026-05-05 05:20 45.71392 57.56763 31873 ft 454 kts 249°
2026-05-05 05:20 45.69266 57.48250 31872 ft 454 kts 249°
2026-05-05 05:21 45.67129 57.39740 31866 ft 454 kts 249°
2026-05-05 05:21 45.64993 57.31266 31868 ft 453 kts 249°
2026-05-05 05:22 45.62845 57.22789 31870 ft 453 kts 249°
2026-05-05 05:22 45.60686 57.14301 31867 ft 453 kts 249°
2026-05-05 05:23 45.58542 57.05898 31864 ft 453 kts 249°
2026-05-05 05:23 45.56374 56.97428 31862 ft 451 kts 249°
2026-05-05 05:24 45.54215 56.89032 31860 ft 450 kts 249°
2026-05-05 05:24 45.52060 56.80682 31860 ft 450 kts 249°
2026-05-05 05:25 45.49879 56.72261 31858 ft 450 kts 249°
2026-05-05 05:25 45.47704 56.63893 31856 ft 450 kts 249°
2026-05-05 05:26 45.45532 56.55566 31849 ft 450 kts 249°
2026-05-05 05:26 45.43705 56.48583 31852 ft 450 kts 248°
2026-05-05 05:27 45.41516 56.40245 31852 ft 450 kts 248°
2026-05-05 05:27 45.38218 56.27740 31851 ft 447 kts 248°
2026-05-05 05:28 45.36028 56.19473 31848 ft 447 kts 248°
2026-05-05 05:28 45.33820 56.11165 31848 ft 447 kts 248°
2026-05-05 05:29 45.31622 56.02926 31848 ft 446 kts 248°
2026-05-05 05:29 45.29412 55.94666 31856 ft 445 kts 248°
2026-05-05 05:30 45.27213 55.86473 31856 ft 445 kts 248°
2026-05-05 05:30 45.24994 55.78247 31851 ft 445 kts 248°
2026-05-05 05:31 45.22772 55.70039 31850 ft 445 kts 248°
2026-05-05 05:31 45.20556 55.61879 31846 ft 443 kts 248°
2026-05-05 05:32 45.18340 55.53750 31848 ft 441 kts 248°
2026-05-05 05:32 45.16122 55.45648 31843 ft 441 kts 248°
2026-05-05 05:33 45.13883 55.37498 31845 ft 441 kts 247°
2026-05-05 05:33 45.11574 55.29484 31853 ft 440 kts 244°
2026-05-05 05:34 45.08662 55.21859 31847 ft 438 kts 238°
2026-05-05 05:34 45.05143 55.14846 31843 ft 438 kts 231°
2026-05-05 05:35 45.01036 55.08470 31843 ft 438 kts 225°
2026-05-05 05:35 44.96571 55.02628 31848 ft 437 kts 224°
2026-05-05 05:36 44.92117 54.96842 31846 ft 435 kts 224°
2026-05-05 05:36 44.87660 54.91074 31845 ft 435 kts 224°
2026-05-05 05:37 44.83189 54.85307 31848 ft 435 kts 224°
2026-05-05 05:37 44.78724 54.79564 31842 ft 435 kts 224°
2026-05-05 05:38 44.74239 54.73813 31844 ft 434 kts 224°
2026-05-05 05:38 44.69816 54.68032 31845 ft 434 kts 226°
2026-05-05 05:39 44.65729 54.61800 31859 ft 433 kts 231°
2026-05-05 05:39 44.62075 54.55122 31851 ft 431 kts 235°
2026-05-05 05:40 44.58644 54.48237 31849 ft 431 kts 235°
2026-05-05 05:40 44.55205 54.41371 31849 ft 431 kts 235°
2026-05-05 05:41 44.51763 54.34500 31842 ft 431 kts 235°
2026-05-05 05:41 44.48302 54.27597 31849 ft 429 kts 234°
2026-05-05 05:42 44.44878 54.20789 31855 ft 428 kts 234°
2026-05-05 05:42 44.41450 54.13985 31840 ft 428 kts 234°
2026-05-05 05:43 44.38010 54.07171 31856 ft 429 kts 234°
2026-05-05 05:43 44.34569 54.00369 31844 ft 427 kts 234°
2026-05-05 05:44 44.31130 53.93590 31845 ft 427 kts 234°
2026-05-05 05:44 44.27691 53.86830 31842 ft 427 kts 234°
2026-05-05 05:45 44.24251 53.80079 31844 ft 427 kts 234°
2026-05-05 05:45 44.20802 53.73326 31846 ft 427 kts 234°
2026-05-05 05:46 44.17346 53.66577 31850 ft 427 kts 234°
2026-05-05 05:46 44.13894 53.59852 31851 ft 427 kts 234°
2026-05-05 05:47 44.10433 53.53124 31847 ft 427 kts 234°
2026-05-05 05:47 44.06971 53.46411 31850 ft 426 kts 234°
2026-05-05 05:48 44.03510 53.39715 31854 ft 426 kts 234°
2026-05-05 05:48 44.00051 53.33042 31855 ft 426 kts 234°
2026-05-05 05:49 43.96565 53.26334 31856 ft 426 kts 234°
2026-05-05 05:49 43.93109 53.19700 31853 ft 424 kts 233°
2026-05-05 05:50 43.89645 53.13071 31847 ft 424 kts 233°
2026-05-05 05:50 43.86176 53.06425 31848 ft 424 kts 234°
2026-05-05 05:51 43.82722 52.99821 31862 ft 424 kts 233°
2026-05-05 05:51 43.79249 52.93205 31860 ft 422 kts 233°
2026-05-05 05:52 43.75786 52.86636 31855 ft 422 kts 233°
2026-05-05 05:52 43.72320 52.80078 31854 ft 422 kts 233°
2026-05-05 05:53 43.68850 52.73528 31868 ft 421 kts 233°
2026-05-05 05:53 43.65404 52.67035 31836 ft 419 kts 233°
2026-05-05 05:54 43.61943 52.60524 31850 ft 419 kts 233°
2026-05-05 05:54 43.58502 52.54072 31852 ft 419 kts 233°
2026-05-05 05:55 43.55044 52.47605 31864 ft 418 kts 233°
2026-05-05 05:55 43.51574 52.41138 31855 ft 418 kts 233°
2026-05-05 05:56 43.48113 52.34704 31858 ft 418 kts 233°
2026-05-05 05:56 43.44650 52.28283 31862 ft 417 kts 233°
2026-05-05 05:57 43.41183 52.21862 31868 ft 417 kts 232°
2026-05-05 05:57 43.37724 52.15476 31866 ft 416 kts 232°
2026-05-05 05:58 43.34266 52.09107 31866 ft 416 kts 232°
2026-05-05 05:58 43.30805 52.02746 31865 ft 416 kts 232°
2026-05-05 05:59 43.27338 51.96382 31871 ft 416 kts 232°
2026-05-05 05:59 43.23870 51.90036 31870 ft 416 kts 232°
2026-05-05 06:00 43.20404 51.83708 31871 ft 415 kts 232°
2026-05-05 06:00 43.16929 51.77375 31876 ft 415 kts 232°
2026-05-05 06:01 43.13445 51.71036 31884 ft 415 kts 232°
2026-05-05 06:01 43.09978 51.64746 31877 ft 414 kts 232°
2026-05-05 06:02 43.06495 51.58439 31875 ft 414 kts 232°
2026-05-05 06:02 43.03018 51.52157 31867 ft 414 kts 232°
2026-05-05 06:03 42.99552 51.45902 31889 ft 414 kts 231°
2026-05-05 06:03 42.96061 51.39623 31873 ft 413 kts 231°
2026-05-05 06:04 42.92580 51.33375 31885 ft 413 kts 231°
2026-05-05 06:04 42.89107 51.27153 31881 ft 413 kts 231°
2026-05-05 06:05 42.85598 51.20883 31864 ft 414 kts 231°
2026-05-05 06:05 42.82097 51.14640 31885 ft 414 kts 231°
2026-05-05 06:06 42.78603 51.08415 31899 ft 414 kts 231°
2026-05-05 06:06 42.75106 51.02199 31913 ft 414 kts 231°
2026-05-05 06:07 42.71610 50.95999 31906 ft 413 kts 231°
2026-05-05 06:07 42.68104 50.89799 31898 ft 413 kts 231°
2026-05-05 06:08 42.64573 50.83567 31900 ft 413 kts 231°
2026-05-05 06:08 42.61084 50.77419 31909 ft 412 kts 231°
2026-05-05 06:09 42.57572 50.71248 31892 ft 412 kts 231°
2026-05-05 06:09 42.54058 50.65089 31912 ft 412 kts 231°
2026-05-05 06:10 42.50545 50.58947 31915 ft 412 kts 231°
2026-05-05 06:10 42.47037 50.52822 31911 ft 410 kts 230°
2026-05-05 06:11 42.43558 50.46709 31907 ft 410 kts 232°
2026-05-05 06:11 42.40249 50.40416 31904 ft 410 kts 232°
2026-05-05 06:12 42.36917 50.34118 31909 ft 410 kts 232°
2026-05-05 06:12 42.33603 50.27864 31919 ft 409 kts 232°
2026-05-05 06:13 42.30282 50.21614 31915 ft 409 kts 232°
2026-05-05 06:13 42.26967 50.15385 31912 ft 409 kts 232°
2026-05-05 06:14 42.23645 50.09155 31915 ft 409 kts 232°
2026-05-05 06:14 42.20329 50.02948 31916 ft 408 kts 232°
2026-05-05 06:15 42.17017 49.96762 31915 ft 408 kts 232°
2026-05-05 06:15 42.13691 49.90564 31914 ft 408 kts 232°
2026-05-05 06:16 42.10361 49.84371 31934 ft 408 kts 232°
2026-05-05 06:16 42.07033 49.78196 31923 ft 406 kts 232°
2026-05-05 06:17 42.03696 49.72017 31920 ft 406 kts 232°
2026-05-05 06:17 42.00373 49.65877 31919 ft 406 kts 232°
2026-05-05 06:18 41.97050 49.59751 31923 ft 406 kts 232°
2026-05-05 06:18 41.93715 49.53621 31910 ft 406 kts 232°
2026-05-05 06:19 41.90364 49.47464 31924 ft 406 kts 232°
2026-05-05 06:19 41.87022 49.41343 31922 ft 406 kts 232°
2026-05-05 06:20 41.83694 49.35258 31933 ft 406 kts 232°
2026-05-05 06:20 41.80409 49.29099 31926 ft 407 kts 234°
2026-05-05 06:21 41.77790 49.23798 31929 ft 407 kts 234°
2026-05-05 06:21 41.74649 49.17504 31927 ft 407 kts 234°
2026-05-05 06:22 41.70964 49.10131 31927 ft 409 kts 234°
2026-05-05 06:22 41.68315 49.04837 31929 ft 410 kts 234°
2026-05-05 06:23 41.65142 48.98511 31926 ft 410 kts 234°
2026-05-05 06:23 41.61961 48.92182 31931 ft 410 kts 234°
2026-05-05 06:24 41.58784 48.85877 31932 ft 410 kts 234°
2026-05-05 06:24 41.55589 48.79551 31933 ft 410 kts 234°
2026-05-05 06:25 41.52362 48.73250 31930 ft 410 kts 232°
2026-05-05 06:25 41.48990 48.67186 31946 ft 409 kts 232°
2026-05-05 06:26 41.45567 48.61049 31938 ft 410 kts 231°
2026-05-05 06:26 41.42160 48.54960 31931 ft 411 kts 232°
2026-05-05 06:27 41.37130 48.45701 31925 ft 411 kts 232°
2026-05-05 06:28 41.33779 48.39543 31913 ft 411 kts 232°
2026-05-05 06:28 41.30420 48.33392 31913 ft 411 kts 232°
2026-05-05 06:29 41.27049 48.27240 31905 ft 411 kts 232°
2026-05-05 06:29 41.23682 48.21112 31922 ft 411 kts 232°
2026-05-05 06:30 41.20299 48.14969 31901 ft 408 kts 232°
2026-05-05 06:30 41.16972 48.08872 31902 ft 408 kts 234°
2026-05-05 06:31 41.14003 48.02458 31898 ft 409 kts 238°
2026-05-05 06:31 41.11499 47.95676 31928 ft 410 kts 243°
2026-05-05 06:32 41.09488 47.88547 31902 ft 411 kts 248°
2026-05-05 06:32 41.07996 47.81189 31919 ft 414 kts 251°
2026-05-05 06:33 41.06651 47.73772 31919 ft 414 kts 251°
2026-05-05 06:33 41.05313 47.66347 31933 ft 414 kts 251°
2026-05-05 06:34 41.03982 47.58936 31937 ft 413 kts 251°
2026-05-05 06:34 41.02652 47.51541 31944 ft 413 kts 251°
2026-05-05 06:35 41.01312 47.44116 31945 ft 413 kts 251°
2026-05-05 06:35 40.99970 47.36711 31961 ft 413 kts 251°
2026-05-05 06:36 40.98627 47.29322 31951 ft 414 kts 251°
2026-05-05 06:36 40.97277 47.21922 31945 ft 414 kts 251°
2026-05-05 06:37 40.95922 47.14529 31948 ft 414 kts 251°
2026-05-05 06:37 40.94556 47.07107 31948 ft 414 kts 251°
2026-05-05 06:38 40.93190 46.99721 31948 ft 414 kts 251°
2026-05-05 06:38 40.91809 46.92287 31942 ft 414 kts 251°
2026-05-05 06:39 40.90460 46.84855 31935 ft 415 kts 253°
2026-05-05 06:39 40.89504 46.77341 31936 ft 419 kts 257°
2026-05-05 06:40 40.88777 46.69657 31927 ft 419 kts 257°
2026-05-05 06:40 40.88050 46.62025 31960 ft 419 kts 257°
2026-05-05 06:41 40.87318 46.54365 31926 ft 420 kts 257°
2026-05-05 06:41 40.86585 46.46722 31911 ft 420 kts 257°
2026-05-05 06:42 40.85841 46.39025 31922 ft 420 kts 257°
2026-05-05 06:42 40.85102 46.31417 31919 ft 420 kts 257°
2026-05-05 06:43 40.84352 46.23764 31918 ft 420 kts 257°
2026-05-05 06:43 40.83592 46.16061 31911 ft 420 kts 257°
2026-05-05 06:44 40.82833 46.08419 31917 ft 420 kts 257°
2026-05-05 06:44 40.82066 46.00772 31923 ft 422 kts 257°
2026-05-05 06:45 40.81291 45.93076 31918 ft 424 kts 257°
2026-05-05 06:45 40.80510 45.85368 31917 ft 423 kts 257°
2026-05-05 06:46 40.79723 45.77666 31907 ft 423 kts 257°
2026-05-05 06:46 40.78927 45.69958 31905 ft 423 kts 257°
2026-05-05 06:47 40.78127 45.62257 31912 ft 423 kts 257°
2026-05-05 06:47 40.77420 45.54521 31913 ft 425 kts 259°
2026-05-05 06:48 40.77181 45.46708 31934 ft 428 kts 263°
2026-05-05 06:48 40.77416 45.38758 31919 ft 438 kts 267°
2026-05-05 06:49 40.77781 45.30714 31916 ft 439 kts 268°
2026-05-05 06:49 40.78147 45.22655 31915 ft 438 kts 267°
2026-05-05 06:50 40.78505 45.14614 31914 ft 439 kts 267°
2026-05-05 06:50 40.78855 45.06579 31916 ft 439 kts 267°
2026-05-05 06:51 40.79199 44.98478 31924 ft 443 kts 268°
2026-05-05 06:51 40.79546 44.90337 31924 ft 444 kts 268°
2026-05-05 06:52 40.79888 44.82218 31916 ft 443 kts 268°
2026-05-05 06:52 40.80221 44.74087 31915 ft 444 kts 268°
2026-05-05 06:53 40.80549 44.65929 31918 ft 444 kts 268°
2026-05-05 06:53 40.80869 44.57771 31935 ft 446 kts 268°
2026-05-05 06:54 40.81188 44.49482 31928 ft 450 kts 268°
2026-05-05 06:54 40.81504 44.41250 31949 ft 450 kts 268°
2026-05-05 06:55 40.81815 44.32991 31933 ft 450 kts 268°
2026-05-05 06:55 40.82119 44.24702 31941 ft 450 kts 268°
2026-05-05 06:56 40.82413 44.16449 31981 ft 451 kts 268°
2026-05-05 06:56 40.82701 44.08151 31960 ft 454 kts 268°
2026-05-05 06:57 40.82991 43.99759 31965 ft 455 kts 268°
2026-05-05 06:57 40.83268 43.91435 31975 ft 455 kts 268°
2026-05-05 06:58 40.83541 43.83085 31969 ft 455 kts 268°
2026-05-05 06:58 40.83813 43.74742 31967 ft 455 kts 268°
2026-05-05 06:59 40.84098 43.66353 31967 ft 457 kts 270°
2026-05-05 06:59 40.84579 43.57973 31963 ft 458 kts 270°
2026-05-05 07:00 40.85076 43.49540 31962 ft 458 kts 270°
2026-05-05 07:00 40.85549 43.41150 31962 ft 458 kts 270°
2026-05-05 07:01 40.86010 43.32776 31966 ft 456 kts 270°
2026-05-05 07:01 40.86455 43.24447 31965 ft 456 kts 270°
2026-05-05 07:02 40.86898 43.16043 31958 ft 456 kts 269°
2026-05-05 07:02 40.87333 43.07661 31953 ft 456 kts 269°
2026-05-05 07:03 40.87760 42.99324 31952 ft 456 kts 269°
2026-05-05 07:03 40.88184 42.90931 31975 ft 456 kts 269°
2026-05-05 07:04 40.88598 42.82578 31960 ft 459 kts 269°
2026-05-05 07:04 40.89014 42.74101 31953 ft 459 kts 269°
2026-05-05 07:05 40.89420 42.65703 31952 ft 459 kts 269°
2026-05-05 07:05 40.89821 42.57277 31946 ft 459 kts 269°
2026-05-05 07:06 40.90216 42.48849 31959 ft 460 kts 269°
2026-05-05 07:06 40.90607 42.40358 31942 ft 461 kts 269°
2026-05-05 07:07 40.90991 42.31893 31939 ft 461 kts 269°
2026-05-05 07:07 40.91368 42.23443 31923 ft 460 kts 269°
2026-05-05 07:08 40.91739 42.14984 31926 ft 460 kts 269°
2026-05-05 07:08 40.92103 42.06551 31921 ft 461 kts 269°
2026-05-05 07:09 40.92464 41.98046 31914 ft 461 kts 269°
2026-05-05 07:09 40.92817 41.89562 31919 ft 461 kts 269°
2026-05-05 07:10 40.93164 41.81088 31913 ft 461 kts 269°
2026-05-05 07:10 40.93505 41.72603 31913 ft 463 kts 269°
2026-05-05 07:11 40.93839 41.64063 31929 ft 464 kts 269°
2026-05-05 07:11 40.94169 41.55536 31915 ft 465 kts 269°
2026-05-05 07:12 40.94493 41.46991 31927 ft 465 kts 269°
2026-05-05 07:12 40.94812 41.38442 31932 ft 465 kts 269°
2026-05-05 07:13 40.95123 41.29893 31931 ft 464 kts 269°
2026-05-05 07:13 40.95426 41.21337 31957 ft 466 kts 269°
2026-05-05 07:14 40.95673 41.14219 31953 ft 465 kts 269°
2026-05-05 07:14 40.95967 41.05645 31955 ft 466 kts 269°
2026-05-05 07:15 40.96250 40.97068 31951 ft 466 kts 269°
2026-05-05 07:15 40.96529 40.88509 31957 ft 466 kts 269°
2026-05-05 07:16 40.96813 40.79932 31957 ft 466 kts 269°
2026-05-05 07:16 40.97088 40.71317 31960 ft 466 kts 269°
2026-05-05 07:17 40.97351 40.62785 31961 ft 466 kts 269°
2026-05-05 07:17 40.97607 40.54180 31960 ft 466 kts 269°
2026-05-05 07:18 40.97855 40.45610 31958 ft 466 kts 269°
2026-05-05 07:18 40.98095 40.37028 31967 ft 467 kts 269°
2026-05-05 07:19 40.98330 40.28372 31966 ft 467 kts 269°
2026-05-05 07:19 40.98558 40.19792 31971 ft 467 kts 269°
2026-05-05 07:20 40.98787 40.11189 31985 ft 467 kts 268°
2026-05-05 07:20 40.99004 40.02600 31979 ft 466 kts 268°
2026-05-05 07:21 40.99207 39.94002 31984 ft 469 kts 268°
2026-05-05 07:21 40.99407 39.85344 31983 ft 469 kts 268°
2026-05-05 07:22 40.99835 39.76678 31983 ft 471 kts 273°
2026-05-05 07:22 41.00653 39.68058 31981 ft 472 kts 274°
2026-05-05 07:23 41.01483 39.59435 31988 ft 473 kts 274°
2026-05-05 07:23 41.02309 39.50729 31981 ft 476 kts 274°
2026-05-05 07:24 41.03125 39.42070 31970 ft 476 kts 274°
2026-05-05 07:24 41.03937 39.33343 31966 ft 476 kts 274°
2026-05-05 07:25 41.04745 39.24573 31966 ft 476 kts 274°
2026-05-05 07:25 41.05538 39.15871 31969 ft 476 kts 274°
2026-05-05 07:26 41.06345 39.07161 31966 ft 476 kts 274°
2026-05-05 07:26 41.07158 38.98434 31969 ft 476 kts 274°
2026-05-05 07:27 41.07954 38.89726 31975 ft 476 kts 274°
2026-05-05 07:27 41.08739 38.80993 31981 ft 479 kts 274°
2026-05-05 07:28 41.09526 38.72198 31973 ft 480 kts 274°
2026-05-05 07:28 41.10299 38.63412 31975 ft 479 kts 274°
2026-05-05 07:29 41.11054 38.54591 31980 ft 479 kts 273°
2026-05-05 07:29 41.11787 38.45820 31980 ft 482 kts 274°
2026-05-05 07:30 41.12524 38.36905 31979 ft 484 kts 274°
2026-05-05 07:30 41.13620 38.23574 31981 ft 484 kts 274°
2026-05-05 07:31 41.14350 38.14731 31986 ft 484 kts 274°
2026-05-05 07:31 41.15069 38.05798 31985 ft 488 kts 274°
2026-05-05 07:32 41.15784 37.96871 31988 ft 489 kts 274°
2026-05-05 07:32 41.16501 37.87845 31989 ft 489 kts 274°
2026-05-05 07:33 41.17261 37.78918 31990 ft 489 kts 275°
2026-05-05 07:33 41.18027 37.69884 31990 ft 490 kts 275°
2026-05-05 07:34 41.18746 37.60878 31989 ft 491 kts 273°
2026-05-05 07:34 41.19296 37.51832 31991 ft 491 kts 274°
2026-05-05 07:35 41.19965 37.42799 31989 ft 491 kts 274°
2026-05-05 07:35 41.20629 37.33785 31985 ft 492 kts 275°
2026-05-05 07:36 41.21292 37.24706 31986 ft 493 kts 275°
2026-05-05 07:36 41.21988 37.15615 31988 ft 493 kts 275°
2026-05-05 07:37 41.22704 37.06559 31984 ft 493 kts 275°
2026-05-05 07:37 41.23400 36.97508 31988 ft 494 kts 276°
2026-05-05 07:38 41.24087 36.88400 31992 ft 495 kts 276°
2026-05-05 07:38 41.24775 36.79244 31996 ft 495 kts 276°
2026-05-05 07:39 41.25446 36.70131 32014 ft 495 kts 276°
2026-05-05 07:39 41.26182 36.61068 32011 ft 495 kts 279°
2026-05-05 07:40 41.27509 36.52020 31981 ft 497 kts 285°
2026-05-05 07:40 41.29506 36.43244 31982 ft 496 kts 290°
2026-05-05 07:41 41.31737 36.34534 31978 ft 496 kts 290°
2026-05-05 07:41 41.33958 36.25826 31971 ft 496 kts 290°
2026-05-05 07:42 41.36170 36.17106 31980 ft 496 kts 290°
2026-05-05 07:42 41.38372 36.08380 31973 ft 496 kts 290°
2026-05-05 07:43 41.40561 35.99661 31974 ft 497 kts 290°
2026-05-05 07:43 41.42735 35.90951 31973 ft 496 kts 290°
2026-05-05 07:44 41.44913 35.82218 31972 ft 496 kts 290°
2026-05-05 07:44 41.47083 35.73478 31974 ft 496 kts 290°
2026-05-05 07:45 41.49252 35.64711 31974 ft 496 kts 290°
2026-05-05 07:45 41.51403 35.55975 31973 ft 496 kts 290°
2026-05-05 07:46 41.53547 35.47239 31972 ft 496 kts 290°
2026-05-05 07:46 41.55694 35.38454 31955 ft 496 kts 290°
2026-05-05 07:47 41.57816 35.29713 31972 ft 495 kts 291°
2026-05-05 07:47 41.59946 35.20946 31969 ft 495 kts 291°
2026-05-05 07:48 41.62063 35.12200 31967 ft 495 kts 291°
2026-05-05 07:48 41.64169 35.03427 31959 ft 495 kts 291°
2026-05-05 07:49 41.66285 34.94607 31969 ft 496 kts 291°
2026-05-05 07:49 41.68385 34.85827 31974 ft 496 kts 291°
2026-05-05 07:50 41.70477 34.77032 31950 ft 496 kts 291°
2026-05-05 07:50 41.72564 34.68199 31969 ft 497 kts 291°
2026-05-05 07:51 41.74650 34.59362 31980 ft 497 kts 291°
2026-05-05 07:51 41.76738 34.50531 31980 ft 497 kts 291°
2026-05-05 07:52 41.78805 34.41718 31965 ft 494 kts 291°
2026-05-05 07:52 41.80859 34.32921 31981 ft 492 kts 291°
2026-05-05 07:53 41.82899 34.24158 31979 ft 491 kts 291°
2026-05-05 07:53 41.84933 34.15374 31980 ft 491 kts 291°
2026-05-05 07:54 41.86936 34.06645 31986 ft 487 kts 292°
2026-05-05 07:54 41.88928 33.97988 31994 ft 487 kts 292°
2026-05-05 07:55 41.90919 33.89287 31993 ft 487 kts 292°
2026-05-05 07:55 41.92899 33.80573 31973 ft 486 kts 292°
2026-05-05 07:56 41.94863 33.71898 31990 ft 486 kts 291°
2026-05-05 07:56 41.96640 33.63076 31998 ft 488 kts 290°
2026-05-05 07:57 41.98335 33.54274 31994 ft 488 kts 290°
2026-05-05 07:57 42.00024 33.45454 31982 ft 487 kts 290°
2026-05-05 07:58 42.01703 33.36641 31992 ft 486 kts 290°
2026-05-05 07:58 42.03384 33.27790 32001 ft 486 kts 290°
2026-05-05 07:59 42.05047 33.18981 32003 ft 486 kts 289°
2026-05-05 07:59 42.06701 33.10182 32001 ft 484 kts 289°
2026-05-05 08:00 42.08424 33.01440 32005 ft 482 kts 291°
2026-05-05 08:00 42.10233 32.92726 32007 ft 482 kts 291°
2026-05-05 08:01 42.12020 32.84016 31972 ft 482 kts 290°
2026-05-05 08:01 42.13787 32.75307 32000 ft 481 kts 290°
2026-05-05 08:02 42.15533 32.66621 32006 ft 480 kts 290°
2026-05-05 08:02 42.17281 32.57927 32006 ft 480 kts 290°
2026-05-05 08:03 42.18749 32.50621 32007 ft 480 kts 290°
2026-05-05 08:03 42.20475 32.41964 32009 ft 481 kts 290°
2026-05-05 08:04 42.22206 32.33216 32004 ft 481 kts 290°
2026-05-05 08:04 42.23916 32.24524 32004 ft 481 kts 290°
2026-05-05 08:05 42.25640 32.15742 31994 ft 480 kts 289°
2026-05-05 08:05 42.27347 32.07026 32002 ft 480 kts 290°
2026-05-05 08:06 42.29062 31.98298 32003 ft 480 kts 289°
2026-05-05 08:06 42.30765 31.89561 32004 ft 480 kts 289°
2026-05-05 08:07 42.32457 31.80849 31993 ft 480 kts 289°
2026-05-05 08:07 42.34148 31.72065 32006 ft 480 kts 289°
2026-05-05 08:08 42.35818 31.63346 32006 ft 479 kts 289°
2026-05-05 08:08 42.37483 31.54627 32016 ft 479 kts 289°
2026-05-05 08:09 42.39146 31.45894 32010 ft 480 kts 288°
2026-05-05 08:09 42.40799 31.37143 32013 ft 480 kts 288°
2026-05-05 08:10 42.42444 31.28386 32018 ft 480 kts 288°
2026-05-05 08:10 42.44090 31.19585 31984 ft 480 kts 288°
2026-05-05 08:11 42.45730 31.10807 32014 ft 480 kts 287°
2026-05-05 08:11 42.47361 31.02048 32017 ft 480 kts 287°
2026-05-05 08:12 42.48982 30.93299 32019 ft 480 kts 287°
2026-05-05 08:12 42.50604 30.84495 32017 ft 480 kts 287°
2026-05-05 08:13 42.52208 30.75728 32027 ft 479 kts 286°
2026-05-05 08:13 42.53803 30.66943 32034 ft 479 kts 286°
2026-05-05 08:14 42.55392 30.58152 32037 ft 479 kts 286°
2026-05-05 08:14 42.56980 30.49333 32032 ft 479 kts 285°
2026-05-05 08:15 42.58568 30.40509 32037 ft 479 kts 287°
2026-05-05 08:15 42.60610 30.31974 32044 ft 477 kts 293°
2026-05-05 08:16 42.63414 30.23796 32043 ft 474 kts 301°
2026-05-05 08:16 42.66907 30.16215 32047 ft 474 kts 307°
2026-05-05 08:17 42.70889 30.09071 32051 ft 475 kts 309°
2026-05-05 08:17 42.74904 30.01986 32053 ft 473 kts 309°
2026-05-05 08:18 42.78935 29.94872 32054 ft 475 kts 309°
2026-05-05 08:18 42.82990 29.87666 32058 ft 476 kts 308°
2026-05-05 08:19 42.87009 29.80501 32058 ft 477 kts 308°
2026-05-05 08:19 42.91016 29.73342 32059 ft 474 kts 309°
2026-05-05 08:20 42.95064 29.66116 32066 ft 478 kts 308°
2026-05-05 08:20 42.99084 29.58885 32061 ft 479 kts 308°
2026-05-05 08:21 43.03105 29.51647 32068 ft 479 kts 309°
2026-05-05 08:21 43.07147 29.44369 32067 ft 480 kts 309°
2026-05-05 08:22 43.11192 29.37069 32065 ft 480 kts 308°
2026-05-05 08:22 43.15223 29.29767 32066 ft 480 kts 308°
2026-05-05 08:23 43.19261 29.22439 32063 ft 481 kts 308°
2026-05-05 08:23 43.23278 29.15115 32066 ft 483 kts 308°
2026-05-05 08:24 43.27317 29.07733 32069 ft 483 kts 308°
2026-05-05 08:24 43.31356 29.00361 32068 ft 483 kts 307°
2026-05-05 08:25 43.35381 28.92969 32071 ft 483 kts 308°
2026-05-05 08:25 43.39415 28.85558 32060 ft 485 kts 308°
2026-05-05 08:26 43.43483 28.78061 32059 ft 486 kts 307°
2026-05-05 08:26 43.47503 28.70631 32056 ft 486 kts 307°
2026-05-05 08:27 43.51568 28.63092 32056 ft 486 kts 308°
2026-05-05 08:27 43.55597 28.55615 32048 ft 486 kts 307°
2026-05-05 08:28 43.59608 28.48139 32042 ft 486 kts 308°
2026-05-05 08:28 43.63617 28.40644 32043 ft 485 kts 308°
2026-05-05 08:29 43.67636 28.33117 32039 ft 485 kts 307°
2026-05-05 08:30 43.73633 28.21850 32045 ft 485 kts 307°
2026-05-05 08:30 43.77623 28.14329 32050 ft 483 kts 308°
2026-05-05 08:31 43.81602 28.06815 32053 ft 485 kts 307°
2026-05-05 08:31 43.85589 27.99265 32055 ft 486 kts 307°
2026-05-05 08:32 43.89582 27.91683 32042 ft 486 kts 307°
2026-05-05 08:32 43.93554 27.84110 32053 ft 483 kts 308°
2026-05-05 08:33 43.97510 27.76562 32049 ft 483 kts 308°
2026-05-05 08:33 44.01454 27.69019 32056 ft 483 kts 308°
2026-05-05 08:34 44.05393 27.61453 32048 ft 480 kts 308°
2026-05-05 08:34 44.09289 27.53958 32052 ft 478 kts 308°
2026-05-05 08:35 44.13175 27.46468 32056 ft 478 kts 308°
2026-05-05 08:35 44.17089 27.38902 32055 ft 478 kts 308°
2026-05-05 08:36 44.20953 27.31404 32049 ft 475 kts 308°
2026-05-05 08:36 44.24818 27.23895 32053 ft 477 kts 308°
2026-05-05 08:37 44.28681 27.16368 32053 ft 477 kts 308°
2026-05-05 08:37 44.32536 27.08834 32040 ft 477 kts 308°
2026-05-05 08:38 44.36383 27.01295 32051 ft 475 kts 308°
2026-05-05 08:38 44.40212 26.93774 32055 ft 475 kts 308°
2026-05-05 08:39 44.44060 26.86195 32050 ft 475 kts 308°
2026-05-05 08:39 44.47882 26.78644 32059 ft 475 kts 308°
2026-05-05 08:40 44.51691 26.71098 32053 ft 475 kts 308°
2026-05-05 08:40 44.55496 26.63532 32051 ft 475 kts 308°
2026-05-05 08:41 44.59299 26.55917 32052 ft 476 kts 306°
2026-05-05 08:41 44.62905 26.48130 32059 ft 476 kts 305°
2026-05-05 08:42 44.66499 26.40236 32048 ft 477 kts 305°
2026-05-05 08:42 44.70058 26.32398 32047 ft 477 kts 305°
2026-05-05 08:43 44.73621 26.24530 32053 ft 477 kts 305°
2026-05-05 08:43 44.77172 26.16670 32056 ft 476 kts 305°
2026-05-05 08:44 44.80723 26.08790 32056 ft 476 kts 305°
2026-05-05 08:44 44.84292 26.00847 32054 ft 476 kts 305°
2026-05-05 08:45 44.87818 25.92981 32041 ft 475 kts 305°
2026-05-05 08:45 44.91341 25.85097 32045 ft 475 kts 304°
2026-05-05 08:46 44.94852 25.77219 32045 ft 475 kts 304°
2026-05-05 08:46 44.98361 25.69322 32045 ft 475 kts 304°
2026-05-05 08:47 45.01891 25.61363 32033 ft 475 kts 304°
2026-05-05 08:47 45.05383 25.53457 32039 ft 474 kts 304°
2026-05-05 08:48 45.08881 25.45519 32042 ft 474 kts 304°
2026-05-05 08:48 45.12370 25.37576 32050 ft 475 kts 304°
2026-05-05 08:49 45.15858 25.29622 32040 ft 476 kts 304°
2026-05-05 08:49 45.19351 25.21630 32048 ft 476 kts 304°
2026-05-05 08:50 45.22238 25.15006 32049 ft 476 kts 304°
2026-05-05 08:50 45.25710 25.07019 32025 ft 476 kts 304°
2026-05-05 08:51 45.29175 24.99028 32040 ft 475 kts 304°
2026-05-05 08:51 45.32647 24.90995 32049 ft 475 kts 304°
2026-05-05 08:52 45.36093 24.83000 32047 ft 475 kts 304°
2026-05-05 08:52 45.39542 24.74972 32033 ft 474 kts 304°
2026-05-05 08:53 45.42977 24.66954 32061 ft 473 kts 304°
2026-05-05 08:53 45.46395 24.58955 32050 ft 473 kts 304°
2026-05-05 08:54 45.49822 24.50915 32064 ft 473 kts 303°
2026-05-05 08:54 45.53224 24.42900 32048 ft 472 kts 304°
2026-05-05 08:55 45.56611 24.34895 32056 ft 471 kts 304°
2026-05-05 08:55 45.59992 24.26884 32055 ft 473 kts 304°
2026-05-05 08:56 45.63385 24.18780 32054 ft 473 kts 302°
2026-05-05 08:56 45.66506 24.10537 32047 ft 474 kts 301°
2026-05-05 08:57 45.69598 24.02155 32058 ft 473 kts 301°
2026-05-05 08:57 45.72650 23.93849 32064 ft 473 kts 301°
2026-05-05 08:58 45.75711 23.85496 32062 ft 473 kts 300°
2026-05-05 08:58 45.78763 23.77144 32058 ft 473 kts 300°
2026-05-05 08:59 45.81828 23.68734 32057 ft 473 kts 300°
2026-05-05 08:59 45.84866 23.60372 32054 ft 473 kts 300°
2026-05-05 09:00 45.87904 23.51982 32046 ft 473 kts 300°
2026-05-05 09:00 45.90925 23.43621 32051 ft 473 kts 300°
2026-05-05 09:01 45.93958 23.35194 32052 ft 473 kts 300°
2026-05-05 09:01 45.96963 23.26814 32049 ft 472 kts 300°
2026-05-05 09:02 45.99970 23.18408 32049 ft 473 kts 300°
2026-05-05 09:02 46.02967 23.10013 32044 ft 471 kts 299°
2026-05-05 09:03 46.05951 23.01611 32047 ft 471 kts 299°
2026-05-05 09:03 46.08926 22.93212 32053 ft 471 kts 299°
2026-05-05 09:04 46.11919 22.84737 32046 ft 472 kts 299°
2026-05-05 09:04 46.14874 22.76352 32042 ft 470 kts 298°
2026-05-05 09:05 46.17839 22.67898 32041 ft 470 kts 298°
2026-05-05 09:05 46.20785 22.59476 32042 ft 470 kts 298°
2026-05-05 09:06 46.23712 22.51081 32039 ft 470 kts 298°
2026-05-05 09:06 46.26649 22.42643 32034 ft 469 kts 298°
2026-05-05 09:07 46.29566 22.34220 32036 ft 469 kts 298°
2026-05-05 09:07 46.32495 22.25738 32032 ft 469 kts 298°
2026-05-05 09:08 46.35405 22.17285 32021 ft 469 kts 298°
2026-05-05 09:08 46.38315 22.08816 32029 ft 469 kts 297°
2026-05-05 09:09 46.41208 22.00355 32028 ft 469 kts 297°
2026-05-05 09:09 46.44103 21.91862 32029 ft 469 kts 297°
2026-05-05 09:10 46.46992 21.83362 32016 ft 469 kts 297°
2026-05-05 09:10 46.49878 21.74851 32026 ft 470 kts 297°
2026-05-05 09:11 46.52760 21.66313 32028 ft 470 kts 297°
2026-05-05 09:11 46.55637 21.57764 32028 ft 470 kts 297°
2026-05-05 09:12 46.58500 21.49230 32024 ft 470 kts 297°
2026-05-05 09:12 46.61365 21.40667 32027 ft 471 kts 297°
2026-05-05 09:13 46.64238 21.32044 32024 ft 471 kts 296°
2026-05-05 09:13 46.67090 21.23457 32027 ft 471 kts 296°
2026-05-05 09:14 46.69935 21.14864 32023 ft 471 kts 296°
2026-05-05 09:14 46.72763 21.06300 32029 ft 470 kts 296°
2026-05-05 09:15 46.75603 20.97665 32021 ft 470 kts 296°
2026-05-05 09:15 46.78404 20.89113 32018 ft 469 kts 296°
2026-05-05 09:16 46.81231 20.80460 32023 ft 469 kts 296°
2026-05-05 09:16 46.84030 20.71879 32018 ft 467 kts 295°
2026-05-05 09:17 46.86823 20.63269 32008 ft 468 kts 295°
2026-05-05 09:17 46.89603 20.54669 32016 ft 470 kts 295°
2026-05-05 09:18 46.92386 20.46034 32014 ft 469 kts 295°
2026-05-05 09:18 46.95175 20.37350 32013 ft 466 kts 295°
2026-05-05 09:19 46.97931 20.28745 32013 ft 469 kts 295°
2026-05-05 09:19 47.00683 20.20123 32011 ft 470 kts 295°
2026-05-05 09:20 47.03461 20.11382 32006 ft 469 kts 295°
2026-05-05 09:20 47.06215 20.02711 32011 ft 468 kts 294°
2026-05-05 09:21 47.08934 19.94092 31996 ft 468 kts 294°
2026-05-05 09:21 47.11670 19.85394 32004 ft 469 kts 294°
2026-05-05 09:22 47.14423 19.76613 32002 ft 471 kts 294°
2026-05-05 09:22 47.17146 19.67912 31998 ft 470 kts 294°
2026-05-05 09:23 47.19863 19.59186 31993 ft 468 kts 294°
2026-05-05 09:23 47.22572 19.50444 31996 ft 469 kts 294°
2026-05-05 09:24 47.25278 19.41686 31989 ft 470 kts 294°
2026-05-05 09:24 47.27980 19.32918 31981 ft 470 kts 293°
2026-05-05 09:25 47.30672 19.24135 31981 ft 469 kts 293°
2026-05-05 09:25 47.33262 19.15251 31981 ft 470 kts 290°
2026-05-05 09:26 47.35273 19.06101 31981 ft 470 kts 284°
2026-05-05 09:26 47.36896 18.96786 31989 ft 469 kts 283°
2026-05-05 09:27 47.38482 18.87454 31975 ft 468 kts 283°
2026-05-05 09:27 47.40067 18.78080 31979 ft 470 kts 283°
2026-05-05 09:28 47.41648 18.68734 31977 ft 468 kts 283°
2026-05-05 09:28 47.43217 18.59408 31972 ft 468 kts 282°
2026-05-05 09:29 47.44786 18.50047 31962 ft 470 kts 282°
2026-05-05 09:29 47.46347 18.40691 31954 ft 467 kts 282°
2026-05-05 09:30 47.47887 18.31349 31952 ft 467 kts 282°
2026-05-05 09:30 47.49424 18.21987 31958 ft 469 kts 282°
2026-05-05 09:31 47.50958 18.12630 31936 ft 467 kts 281°
2026-05-05 09:31 47.52477 18.03258 31929 ft 468 kts 282°
2026-05-05 09:32 47.53997 17.93874 31920 ft 468 kts 282°
2026-05-05 09:32 47.55498 17.84519 31920 ft 466 kts 282°
2026-05-05 09:33 47.56994 17.75117 31928 ft 469 kts 282°
2026-05-05 09:33 47.58492 17.65704 31925 ft 469 kts 282°
2026-05-05 09:34 47.59972 17.56327 31919 ft 468 kts 281°
2026-05-05 09:34 47.61441 17.46934 31915 ft 469 kts 282°
2026-05-05 09:35 47.62890 17.37506 31911 ft 468 kts 280°
2026-05-05 09:35 47.64817 17.23270 31895 ft 470 kts 280°
2026-05-05 09:36 47.66108 17.13725 31889 ft 469 kts 279°
2026-05-05 09:36 47.67415 17.04267 31889 ft 469 kts 281°
2026-05-05 09:37 47.69204 16.94975 31877 ft 469 kts 287°
2026-05-05 09:37 47.71260 16.85835 31880 ft 466 kts 286°
2026-05-05 09:38 47.72961 16.78244 31873 ft 464 kts 286°
2026-05-05 09:38 47.74994 16.69113 31866 ft 467 kts 287°
2026-05-05 09:39 47.77041 16.59930 31873 ft 466 kts 287°
2026-05-05 09:39 47.79073 16.50729 31860 ft 464 kts 286°
2026-05-05 09:40 47.81076 16.41589 31859 ft 465 kts 286°
2026-05-05 09:40 47.83085 16.32384 31853 ft 468 kts 287°
2026-05-05 09:41 47.85089 16.23206 31857 ft 465 kts 286°
2026-05-05 09:41 47.87072 16.14050 31846 ft 466 kts 286°
2026-05-05 09:42 47.89062 16.04829 31847 ft 466 kts 287°
2026-05-05 09:42 47.91039 15.95634 31845 ft 466 kts 286°
2026-05-05 09:43 47.93000 15.86482 31840 ft 464 kts 286°
2026-05-05 09:43 47.94951 15.77314 31844 ft 464 kts 286°
2026-05-05 09:44 47.96898 15.68140 31844 ft 462 kts 286°
2026-05-05 09:44 47.98837 15.58962 31844 ft 462 kts 285°
2026-05-05 09:45 48.00769 15.49756 31842 ft 462 kts 286°
2026-05-05 09:45 48.02690 15.40560 31845 ft 465 kts 286°
2026-05-05 09:46 48.04611 15.31349 31841 ft 465 kts 285°
2026-05-05 09:46 48.06524 15.22119 31838 ft 466 kts 286°
2026-05-05 09:47 48.08446 15.12795 31827 ft 467 kts 286°
2026-05-05 09:47 48.10354 15.03518 31836 ft 466 kts 285°
2026-05-05 09:48 48.12244 14.94272 31827 ft 465 kts 285°
2026-05-05 09:48 48.14139 14.84948 31828 ft 465 kts 285°
2026-05-05 09:49 48.16021 14.75649 31824 ft 465 kts 285°
2026-05-05 09:49 48.17894 14.66352 31827 ft 465 kts 285°
2026-05-05 09:50 48.19754 14.57084 31823 ft 465 kts 285°
2026-05-05 09:50 48.21607 14.47796 31820 ft 465 kts 285°
2026-05-05 09:51 48.23456 14.38486 31818 ft 465 kts 285°
2026-05-05 09:51 48.25294 14.29186 31818 ft 465 kts 285°
2026-05-05 09:52 48.27125 14.19890 31820 ft 466 kts 284°
2026-05-05 09:52 48.28955 14.10531 31819 ft 466 kts 284°
2026-05-05 09:53 48.30781 14.01153 31822 ft 466 kts 284°
2026-05-05 09:53 48.32586 13.91838 31818 ft 466 kts 284°
2026-05-05 09:54 48.34416 13.82355 31827 ft 465 kts 284°
2026-05-05 09:54 48.36200 13.73051 31851 ft 469 kts 284°
2026-05-05 09:55 48.37104 13.68312 32263 ft 470 kts 284°
2026-05-05 09:55 48.38001 13.63609 32899 ft 465 kts 284°
2026-05-05 09:55 48.38889 13.58935 33530 ft 463 kts 284°
2026-05-05 09:55 48.39763 13.54320 33818 ft 462 kts 283°
2026-05-05 09:56 48.41484 13.45194 33825 ft 437 kts 283°
2026-05-05 09:56 48.42291 13.40902 33818 ft 422 kts 283°
2026-05-05 09:56 48.43082 13.36709 33811 ft 408 kts 284°
2026-05-05 09:57 48.43953 13.32684 33812 ft 395 kts 287°
2026-05-05 09:57 48.44914 13.28921 33808 ft 383 kts 289°
2026-05-05 09:57 48.46871 13.21525 33810 ft 380 kts 289°
2026-05-05 09:58 48.48821 13.14131 33818 ft 379 kts 289°
2026-05-05 09:58 48.50769 13.06719 33821 ft 379 kts 289°
2026-05-05 09:59 48.52706 12.99323 33819 ft 379 kts 288°
2026-05-05 09:59 48.54637 12.91919 33819 ft 379 kts 288°
2026-05-05 10:00 48.56561 12.84521 33817 ft 379 kts 288°
2026-05-05 10:00 48.58484 12.77103 33819 ft 379 kts 288°
2026-05-05 10:01 48.60402 12.69678 33825 ft 379 kts 288°
2026-05-05 10:01 48.62307 12.62284 33811 ft 377 kts 288°
2026-05-05 10:02 48.64200 12.54903 33814 ft 377 kts 288°
2026-05-05 10:02 48.66097 12.47487 33812 ft 377 kts 288°
2026-05-05 10:03 48.67982 12.40087 33815 ft 377 kts 288°
2026-05-05 10:03 48.69866 12.32664 33811 ft 377 kts 288°
2026-05-05 10:04 48.71756 12.25198 33826 ft 377 kts 287°
2026-05-05 10:04 48.73611 12.17837 33806 ft 375 kts 286°
2026-05-05 10:05 48.75114 12.10276 33815 ft 373 kts 279°
2026-05-05 10:05 48.76060 12.02564 33817 ft 371 kts 276°
2026-05-05 10:06 48.76890 11.94836 33823 ft 371 kts 276°
2026-05-05 10:06 48.77715 11.87112 33833 ft 371 kts 276°
2026-05-05 10:07 48.78543 11.79379 33837 ft 370 kts 275°
2026-05-05 10:07 48.79353 11.71657 33840 ft 370 kts 275°
2026-05-05 10:08 48.80163 11.63940 33842 ft 370 kts 275°
2026-05-05 10:08 48.80970 11.56232 33843 ft 370 kts 275°
2026-05-05 10:09 48.81766 11.48526 33845 ft 370 kts 275°
2026-05-05 10:09 48.82562 11.40764 33851 ft 370 kts 274°
2026-05-05 10:10 48.83367 11.33064 33835 ft 372 kts 277°
2026-05-05 10:10 48.84921 11.25522 33834 ft 379 kts 289°
2026-05-05 10:11 48.87587 11.18508 33838 ft 387 kts 301°
2026-05-05 10:11 48.89336 11.15298 33843 ft 401 kts 308°
2026-05-05 10:11 48.91345 11.12296 33845 ft 415 kts 311°
2026-05-05 10:12 48.93514 11.09277 33846 ft 428 kts 313°
2026-05-05 10:12 48.95769 11.06178 33844 ft 440 kts 313°
2026-05-05 10:12 48.98043 11.03035 33857 ft 451 kts 312°
2026-05-05 10:12 49.00366 10.99796 33846 ft 462 kts 312°
2026-05-05 10:13 49.02770 10.96419 33853 ft 473 kts 312°
2026-05-05 10:13 49.05193 10.93009 33843 ft 477 kts 312°
2026-05-05 10:13 49.10082 10.86127 33847 ft 478 kts 312°
2026-05-05 10:14 49.14960 10.79230 33842 ft 478 kts 312°
2026-05-05 10:14 49.19818 10.72278 33858 ft 477 kts 310°
2026-05-05 10:15 49.22162 10.68678 33715 ft 473 kts 309°
2026-05-05 10:15 49.24430 10.65119 32589 ft 470 kts 309°
2026-05-05 10:15 49.26691 10.61517 30902 ft 477 kts 310°
2026-05-05 10:15 49.29016 10.57803 29031 ft 486 kts 311°
2026-05-05 10:16 49.31378 10.54061 27475 ft 486 kts 311°
2026-05-05 10:16 49.33682 10.50410 26658 ft 470 kts 310°
2026-05-05 10:16 49.35827 10.46722 25531 ft 461 kts 307°
2026-05-05 10:16 49.37815 10.42868 24364 ft 455 kts 303°
2026-05-05 10:17 49.39643 10.38961 23295 ft 449 kts 302°
2026-05-05 10:17 49.41426 10.35037 22522 ft 443 kts 302°
2026-05-05 10:17 49.43194 10.31123 22277 ft 446 kts 302°
2026-05-05 10:17 49.44972 10.27194 21829 ft 442 kts 302°
2026-05-05 10:18 49.46718 10.23337 21402 ft 439 kts 302°
2026-05-05 10:18 49.48434 10.19548 21010 ft 433 kts 302°
2026-05-05 10:18 49.50153 10.15750 20631 ft 425 kts 302°
2026-05-05 10:18 49.51828 10.12046 20274 ft 418 kts 302°
2026-05-05 10:19 49.53457 10.08444 19957 ft 410 kts 302°
2026-05-05 10:19 49.55075 10.04861 19573 ft 405 kts 301°
2026-05-05 10:19 49.56683 10.01292 19200 ft 399 kts 301°
2026-05-05 10:19 49.58258 9.97792 18836 ft 394 kts 301°
2026-05-05 10:20 49.59797 9.94377 18266 ft 386 kts 301°
2026-05-05 10:20 49.61321 9.90995 17714 ft 372 kts 301°
2026-05-05 10:20 49.62755 9.87800 17264 ft 358 kts 301°
2026-05-05 10:20 49.64165 9.84648 16933 ft 354 kts 301°
2026-05-05 10:21 49.65543 9.81560 16519 ft 350 kts 301°
2026-05-05 10:21 49.66927 9.78454 16160 ft 347 kts 301°
2026-05-05 10:21 49.68297 9.75374 15800 ft 345 kts 301°
2026-05-05 10:21 49.69637 9.72361 15447 ft 343 kts 301°
2026-05-05 10:22 49.70993 9.69312 15091 ft 339 kts 301°
2026-05-05 10:22 49.72317 9.66331 14733 ft 337 kts 301°
2026-05-05 10:22 49.73642 9.63347 14379 ft 334 kts 301°
2026-05-05 10:22 49.74947 9.60409 14019 ft 332 kts 302°
2026-05-05 10:23 49.76253 9.57465 13653 ft 329 kts 302°
2026-05-05 10:23 49.77540 9.54559 13269 ft 327 kts 302°
2026-05-05 10:23 49.78832 9.51635 12901 ft 325 kts 302°
2026-05-05 10:23 49.80103 9.48752 12540 ft 325 kts 302°
2026-05-05 10:24 49.81365 9.45886 12179 ft 323 kts 302°
2026-05-05 10:24 49.82633 9.43006 11821 ft 321 kts 302°
2026-05-05 10:24 49.83893 9.40143 11472 ft 320 kts 302°
2026-05-05 10:24 49.85111 9.37237 11117 ft 318 kts 298°
2026-05-05 10:25 49.86133 9.34219 10760 ft 316 kts 293°
2026-05-05 10:25 49.86972 9.31096 10649 ft 316 kts 292°
2026-05-05 10:25 49.88179 9.28259 10447 ft 314 kts 309°
2026-05-05 10:25 49.89676 9.25772 9992 ft 315 kts 313°
2026-05-05 10:26 49.91220 9.23353 9551 ft 316 kts 314°
2026-05-05 10:26 49.92773 9.20938 9130 ft 314 kts 314°
2026-05-05 10:26 49.94313 9.18550 8743 ft 312 kts 314°
2026-05-05 10:26 49.95849 9.16170 8333 ft 311 kts 314°
2026-05-05 10:27 49.97377 9.13802 7954 ft 308 kts 314°
2026-05-05 10:27 49.98890 9.11463 7581 ft 307 kts 314°
2026-05-05 10:27 50.00418 9.09113 7219 ft 304 kts 314°
2026-05-05 10:27 50.01890 9.06858 6910 ft 293 kts 314°
2026-05-05 10:28 50.03323 9.04669 6630 ft 278 kts 314°
2026-05-05 10:28 50.04667 9.02624 6393 ft 265 kts 314°
2026-05-05 10:28 50.05957 9.00667 6164 ft 256 kts 314°
2026-05-05 10:28 50.07214 8.98765 5864 ft 246 kts 314°
2026-05-05 10:29 50.08430 8.96917 5413 ft 242 kts 314°
2026-05-05 10:29 50.09504 8.95163 4974 ft 239 kts 301°
2026-05-05 10:29 50.10197 8.92811 4699 ft 234 kts 287°
2026-05-05 10:29 50.10669 8.90385 4368 ft 234 kts 284°
2026-05-05 10:30 50.10795 8.87959 4123 ft 221 kts 261°
2026-05-05 10:30 50.10444 8.85688 3912 ft 207 kts 251°
2026-05-05 10:30 50.10002 8.83626 3695 ft 197 kts 249°
2026-05-05 10:30 50.09537 8.81655 3446 ft 190 kts 248°
2026-05-05 10:31 50.09079 8.79766 3169 ft 183 kts 248°
2026-05-05 10:31 50.08634 8.77939 2920 ft 176 kts 248°
2026-05-05 10:31 50.08198 8.76144 2710 ft 178 kts 249°
2026-05-05 10:31 50.07771 8.74378 2518 ft 170 kts 249°
2026-05-05 10:32 50.07369 8.72712 2273 ft 163 kts 249°
2026-05-05 10:32 50.06968 8.71043 2059 ft 163 kts 249°
2026-05-05 10:32 50.06566 8.69368 1853 ft 165 kts 250°
2026-05-05 10:32 50.06155 8.67693 1629 ft 165 kts 249°
2026-05-05 10:33 50.05877 8.66579 1455 ft 163 kts 249°
2026-05-05 10:33 50.05488 8.64925 1208 ft 161 kts 250°
2026-05-05 10:33 50.04952 8.62684 981 ft 162 kts 250°
2026-05-05 10:33 50.04570 8.61041 743 ft 158 kts 249°
2026-05-05 10:34 50.04311 8.59954 591 ft 157 kts 250°
2026-05-05 10:34 50.03814 8.57845 373 ft 148 kts 249°
2026-05-05 10:34 50.03424 8.56184 603 ft 176 kts 251°
2026-05-05 10:34 50.03155 8.54956 1154 ft 181 kts 249°
2026-05-05 10:35 50.02672 8.53114 2140 ft 184 kts 247°
2026-05-05 10:35 50.02171 8.51212 3017 ft 198 kts 247°
2026-05-05 10:35 50.01621 8.49057 3541 ft 217 kts 247°
2026-05-05 10:35 50.00897 8.46849 3763 ft 231 kts 229°
2026-05-05 10:36 49.99532 8.45515 4276 ft 233 kts 195°
2026-05-05 10:36 49.97989 8.45464 4634 ft 231 kts 164°
2026-05-05 10:36 49.96598 8.46697 4716 ft 232 kts 133°
2026-05-05 10:36 49.95840 8.48883 4720 ft 235 kts 104°
2026-05-05 10:37 49.95620 8.51428 4733 ft 236 kts 96°
2026-05-05 10:37 49.95531 8.53974 4718 ft 236 kts 94°
2026-05-05 10:37 49.95468 8.56535 4716 ft 236 kts 94°
2026-05-05 10:37 49.95408 8.59087 4716 ft 236 kts 94°
2026-05-05 10:38 49.95348 8.61614 4702 ft 236 kts 94°
2026-05-05 10:38 49.95286 8.64183 4709 ft 236 kts 94°
2026-05-05 10:38 49.95225 8.66716 4712 ft 236 kts 92°
2026-05-05 10:38 49.95417 8.69268 4717 ft 237 kts 77°
2026-05-05 10:39 49.95858 8.71742 4719 ft 237 kts 75°
2026-05-05 10:39 49.96361 8.74179 4719 ft 238 kts 73°
2026-05-05 10:39 49.96868 8.76634 4719 ft 238 kts 73°
2026-05-05 10:39 49.97367 8.79070 4718 ft 238 kts 73°
2026-05-05 10:40 49.97870 8.81531 4709 ft 238 kts 73°
2026-05-05 10:40 49.98375 8.83997 4711 ft 238 kts 73°
2026-05-05 10:40 49.98872 8.86437 4679 ft 234 kts 73°
2026-05-05 10:40 49.99362 8.88838 4345 ft 235 kts 73°
2026-05-05 10:41 49.99857 8.91270 4054 ft 235 kts 73°
2026-05-05 10:41 50.00351 8.93720 3798 ft 234 kts 73°
2026-05-05 10:41 50.01089 8.95910 3697 ft 234 kts 45°
2026-05-05 10:41 50.02484 8.97193 3711 ft 237 kts 12°
2026-05-05 10:42 50.05713 8.96648 3714 ft 235 kts 345°
2026-05-05 10:42 50.07278 8.95992 3714 ft 236 kts 344°
2026-05-05 10:42 50.08858 8.95309 3709 ft 234 kts 343°
2026-05-05 10:43 50.10327 8.94257 3694 ft 232 kts 316°
2026-05-05 10:43 50.11205 8.92209 3706 ft 230 kts 283°
2026-05-05 10:43 50.11279 8.89834 3730 ft 214 kts 258°
2026-05-05 10:43 50.10904 8.87601 3768 ft 210 kts 252°
2026-05-05 10:44 50.10448 8.85478 3737 ft 202 kts 249°
2026-05-05 10:44 50.09982 8.83490 3650 ft 189 kts 249°
2026-05-05 10:44 50.09522 8.81585 3452 ft 187 kts 248°
2026-05-05 10:44 50.09066 8.79716 3195 ft 186 kts 248°
2026-05-05 10:45 50.08604 8.77822 2937 ft 186 kts 249°
2026-05-05 10:45 50.08146 8.75930 2698 ft 186 kts 249°
2026-05-05 10:45 50.07694 8.74059 2442 ft 180 kts 249°
2026-05-05 10:45 50.07272 8.72302 2197 ft 168 kts 249°
2026-05-05 10:46 50.06870 8.70629 1976 ft 162 kts 249°
2026-05-05 10:46 50.06582 8.68925 1733 ft 167 kts 262°
2026-05-05 10:46 50.06427 8.67162 1535 ft 161 kts 259°
2026-05-05 10:46 50.06128 8.65506 1318 ft 160 kts 250°
2026-05-05 10:47 50.05730 8.63879 1117 ft 160 kts 249°
2026-05-05 10:47 50.05345 8.62253 914 ft 160 kts 251°
2026-05-05 10:47 50.04969 8.60627 686 ft 159 kts 250°
2026-05-05 10:47 50.04589 8.59022 468 ft 157 kts 250°
2026-05-05 10:48 50.04227 8.57497 374 ft 130 kts 249°
2026-05-05 10:48 50.03975 8.56440 366 ft 76 kts 250°
2026-05-05 10:48 50.03806 8.55738 362 ft 61 kts 249°
2026-05-05 10:48 50.03692 8.55232 357 ft 34 kts 257°
2026-05-05 10:49 50.03694 8.55007 357 ft 11 kts 278°
2026-05-05 10:49 50.03708 8.54886 362 ft 8 kts 289°
2026-05-05 10:49 50.03719 8.54853 358 ft 0 kts 306°
2026-05-05 10:49 50.03735 8.54833 359 ft 8 kts 335°
2026-05-05 10:50 50.03794 8.54893 363 ft 14 kts 65°
2026-05-05 10:50 50.03833 8.55043 362 ft 16 kts 69°
2026-05-05 10:50 50.03876 8.55227 361 ft 19 kts 70°
2026-05-05 10:50 50.03925 8.55439 361 ft 22 kts 69°
2026-05-05 10:51 50.03981 8.55674 364 ft 24 kts 70°
2026-05-05 10:51 50.04040 8.55916 362 ft 24 kts 69°
2026-05-05 10:51 50.04097 8.56156 368 ft 21 kts 69°
2026-05-05 10:51 50.04150 8.56377 365 ft 22 kts 69°
2026-05-05 10:52 50.04207 8.56610 365 ft 24 kts 69°
2026-05-05 10:52 50.04246 8.56779 371 ft 15 kts 70°
2026-05-05 10:52 50.04285 8.56943 372 ft 18 kts 70°
2026-05-05 10:52 50.04331 8.57134 372 ft 20 kts 69°
2026-05-05 10:53 50.04383 8.57350 373 ft 23 kts 70°
2026-05-05 10:53 50.04427 8.57533 372 ft 8 kts 70°
2026-05-05 10:53 50.04457 8.57577 374 ft 5 kts
2026-05-05 10:53 50.04503 8.57556 373 ft 10 kts 338°
2026-05-05 10:54 50.04573 8.57511 371 ft 10 kts 337°
2026-05-05 10:54 50.04631 8.57458 369 ft 9 kts 318°
2026-05-05 10:54 50.04671 8.57402 372 ft 6 kts 322°
2026-05-05 10:54 50.04705 8.57400 370 ft 6 kts 25°
2026-05-05 10:55 50.04735 8.57433 371 ft 3 kts 43°
2026-05-05 10:55 50.04740 8.57441 371 ft 0 kts 44°
2026-05-05 10:55 50.04745 8.57448 369 ft 0 kts 44°
2026-05-05 10:55 50.04748 8.57452 368 ft 0 kts 45°
2026-05-05 10:56 50.04748 8.57453 368 ft 0 kts 45°